M I D A S
Marine Information and Data Acquisition System
Tripno 1478 of the Zeeleeuw from 2008-02-07 07:33:22 to 2008-02-07 17:20:09
Back to CruiseResearch ActivitiesStationsMapUnderway DataData graphs

EquipmentUnitsComment
TimeDGPSUTC
LatitudeDGPSDM.mWGS84
LongitudeDGPSDM.mWGS84
TemperatureSBE03/SBE38deg celciusITS90
ConductivitySBE21S/mITS90
SalinitySBE21 Practical Salinity Units
ChlorophylAChelsea fluorimeterg/lCalibrated in Aceton
Missing or incorrect values are displayed as -999
Sea surface data collected by the RV Zeeleeuw from 2008-02-07 07:30:23 to 2008-02-07 17:30:04
                                                                                    Next 1000 lines
Time Latitude Longitude Temperature Conductivity Salinity ChlorophylA
2008-02-07 07:30:34 51°13.664 2°55.95 -999 0.263183 1.418136 -1.801521
2008-02-07 07:30:38 51°13.665 2°55.947 -999 0.263183 1.418136 -1.801521
2008-02-07 07:30:43 51°13.666 2°55.943 -999 0.263183 1.418136 -1.801521
2008-02-07 07:30:48 51°13.667 2°55.938 -999 0.263183 1.418189 -1.801521
2008-02-07 07:30:53 51°13.668 2°55.932 -999 0.263183 1.418189 -1.801521
2008-02-07 07:30:59 51°13.67 2°55.926 -999 0.263183 1.418189 -1.801521
2008-02-07 07:31:03 51°13.67 2°55.921 -999 0.263183 1.418189 -1.801521
2008-02-07 07:31:08 51°13.671 2°55.917 -999 0.263183 1.418189 -1.801521
2008-02-07 07:31:13 51°13.672 2°55.913 -999 0.263183 1.418189 -1.801521
2008-02-07 07:31:19 51°13.672 2°55.911 -999 0.263183 1.418215 -1.801521
2008-02-07 07:31:23 51°13.672 2°55.911 -999 0.263183 1.418242 -1.801521
2008-02-07 07:31:28 51°13.672 2°55.911 -999 0.263183 1.418268 -1.801521
2008-02-07 07:31:33 51°13.672 2°55.91 -999 0.263183 1.418347 -1.801521
2008-02-07 07:31:38 51°13.672 2°55.909 -999 0.263183 1.418347 -1.801521
2008-02-07 07:31:43 51°13.672 2°55.907 -999 0.263183 1.418399 -1.801521
2008-02-07 07:31:48 51°13.673 2°55.905 -999 0.263183 1.418452 -1.801521
2008-02-07 07:31:53 51°13.674 2°55.902 -999 0.263183 1.418478 -1.801521
2008-02-07 07:31:58 51°13.674 2°55.899 -999 0.263183 1.418505 -1.801521
2008-02-07 07:32:03 51°13.675 2°55.895 -999 0.263183 1.418531 -1.801521
2008-02-07 07:32:08 51°13.676 2°55.891 -999 0.263183 1.418531 -1.801521
2008-02-07 07:32:13 51°13.676 2°55.887 -999 0.263183 1.418557 -1.801521
2008-02-07 07:32:18 51°13.677 2°55.883 -999 0.263183 1.418584 -1.801521
2008-02-07 07:32:23 51°13.678 2°55.878 -999 0.263183 1.41861 -1.801521
2008-02-07 07:32:28 51°13.679 2°55.873 -999 0.263183 1.418662 -1.801521
2008-02-07 07:32:33 51°13.681 2°55.867 -999 0.263183 1.418715 -1.801521
2008-02-07 07:32:38 51°13.682 2°55.861 -999 0.263183 1.418715 -1.801521
2008-02-07 07:32:43 51°13.684 2°55.854 -999 0.263183 1.418741 -1.801521
2008-02-07 07:32:48 51°13.686 2°55.848 -999 0.263183 1.418768 -1.801521
2008-02-07 07:32:54 51°13.689 2°55.84 -999 0.263183 1.418794 -1.801521
2008-02-07 07:32:59 51°13.692 2°55.832 -999 0.263183 1.41882 -1.801521
2008-02-07 07:33:03 51°13.694 2°55.826 -999 0.263183 1.418847 -1.801521
2008-02-07 07:33:08 51°13.697 2°55.819 -999 0.263183 1.418847 -1.801521
2008-02-07 07:33:13 51°13.7 2°55.811 -999 0.263183 1.418847 -1.801521
2008-02-07 07:33:19 51°13.704 2°55.801 -999 0.263183 1.418873 -1.801521
2008-02-07 07:33:23 51°13.707 2°55.795 -999 0.26308 1.418314 -1.801521
2008-02-07 07:33:28 51°13.711 2°55.787 -999 0.26308 1.418366 -1.801521
2008-02-07 07:33:33 51°13.714 2°55.778 -999 0.26308 1.418419 -1.801521
2008-02-07 07:33:38 51°13.718 2°55.77 -999 0.26308 1.418419 -1.801521
2008-02-07 07:33:43 51°13.722 2°55.762 -999 0.26308 1.418419 -1.801521
2008-02-07 07:33:48 51°13.727 2°55.755 -999 0.26308 1.418472 -1.801521
2008-02-07 07:33:53 51°13.731 2°55.747 -999 0.26308 1.418498 -1.801521
2008-02-07 07:33:58 51°13.735 2°55.739 -999 0.26308 1.418524 -1.801521
2008-02-07 07:34:03 51°13.74 2°55.731 -999 0.26308 1.418551 -1.801521
2008-02-07 07:34:09 51°13.745 2°55.722 -999 0.26308 1.418551 -1.801521
2008-02-07 07:34:13 51°13.748 2°55.716 -999 0.26308 1.418577 -1.801521
2008-02-07 07:34:18 51°13.753 2°55.709 -999 0.26308 1.418603 -1.801521
2008-02-07 07:34:23 51°13.758 2°55.702 -999 0.26308 1.418629 -1.801521
2008-02-07 07:34:29 51°13.764 2°55.694 -999 0.26308 1.418656 -1.801521
2008-02-07 07:34:34 51°13.769 2°55.687 -999 0.26308 1.418708 -1.801521
2008-02-07 07:34:38 51°13.773 2°55.682 -999 0.26308 1.418708 -1.801521
2008-02-07 07:34:43 51°13.779 2°55.675 -999 0.26308 1.418735 -1.801521
2008-02-07 07:34:48 51°13.785 2°55.669 -999 0.26308 1.418761 -1.801521
2008-02-07 07:34:53 51°13.791 2°55.664 -999 0.26308 1.418787 -1.801521
2008-02-07 07:34:58 51°13.798 2°55.658 -999 0.26308 1.418814 -1.801521
2008-02-07 07:35:03 51°13.805 2°55.653 -999 0.26308 1.41884 -1.801521
2008-02-07 07:35:08 51°13.812 2°55.649 -999 0.26308 1.41884 -1.801521
2008-02-07 07:35:13 51°13.819 2°55.645 -999 0.26308 1.418866 -1.801521
2008-02-07 07:35:18 51°13.826 2°55.642 -999 0.26308 1.418893 -1.801521
2008-02-07 07:35:23 51°13.833 2°55.639 -999 0.26308 1.418919 -1.801521
2008-02-07 07:35:28 51°13.841 2°55.637 -999 0.26308 1.418945 -1.801521
2008-02-07 07:35:33 51°13.848 2°55.636 -999 0.26308 1.418972 -1.801521
2008-02-07 07:35:39 51°13.856 2°55.635 -999 0.26308 1.418972 -1.801521
2008-02-07 07:35:43 51°13.862 2°55.634 -999 0.26308 1.418998 -1.801521
2008-02-07 07:35:48 51°13.868 2°55.635 -999 0.26308 1.418998 -1.801521
2008-02-07 07:35:53 51°13.875 2°55.635 -999 0.26308 1.419024 -1.801521
2008-02-07 07:35:58 51°13.881 2°55.637 -999 0.26308 1.419077 -1.801521
2008-02-07 07:36:04 51°13.889 2°55.638 -999 0.26308 1.419077 -1.801521
2008-02-07 07:36:08 51°13.894 2°55.64 -999 0.26308 1.419077 -1.801521
2008-02-07 07:36:13 51°13.9 2°55.643 -999 0.26308 1.419103 -1.801521
2008-02-07 07:36:18 51°13.906 2°55.646 -999 0.262977 1.418544 -1.801521
2008-02-07 07:36:23 51°13.911 2°55.649 -999 0.262977 1.41857 -1.801521
2008-02-07 07:36:28 51°13.916 2°55.652 -999 0.262977 1.418597 -1.801521
2008-02-07 07:36:33 51°13.921 2°55.656 -999 0.262977 1.418649 -1.801521
2008-02-07 07:36:38 51°13.925 2°55.659 -999 0.262977 1.418649 -1.801521
2008-02-07 07:36:43 51°13.929 2°55.663 -999 0.262977 1.418676 -1.801521
2008-02-07 07:36:48 51°13.932 2°55.666 -999 0.262977 1.418702 -1.801521
2008-02-07 07:36:54 51°13.936 2°55.67 -999 0.262977 1.418755 -1.801521
2008-02-07 07:36:58 51°13.938 2°55.671 -999 0.262977 1.418781 -1.801521
2008-02-07 07:37:03 51°13.939 2°55.671 -999 0.262977 1.418807 -1.801521
2008-02-07 07:37:08 51°13.939 2°55.67 -999 0.262977 1.418807 -1.801521
2008-02-07 07:37:13 51°13.939 2°55.667 -999 0.262977 1.418834 -1.801521
2008-02-07 07:37:18 51°13.938 2°55.663 -999 0.262977 1.418834 -1.801521
2008-02-07 07:37:23 51°13.938 2°55.656 -999 0.262977 1.41886 -1.801521
2008-02-07 07:37:28 51°13.939 2°55.65 -999 0.262977 1.41886 -1.801521
2008-02-07 07:37:33 51°13.94 2°55.644 -999 0.262874 1.418274 -1.801521
2008-02-07 07:37:38 51°13.941 2°55.638 -999 0.262874 1.418274 -1.801521
2008-02-07 07:37:43 51°13.942 2°55.632 -999 0.262874 1.418248 -1.801521
2008-02-07 07:37:48 51°13.944 2°55.626 -999 0.262874 1.418221 -1.801521
2008-02-07 07:37:53 51°13.947 2°55.62 -999 0.262874 1.418221 -1.801521
2008-02-07 07:37:58 51°13.95 2°55.614 -999 0.262874 1.418195 -1.801521
2008-02-07 07:38:03 51°13.953 2°55.608 -999 0.262874 1.418142 -1.801521
2008-02-07 07:38:08 51°13.958 2°55.601 -999 0.262874 1.418142 -1.801521
2008-02-07 07:38:13 51°13.963 2°55.594 -999 0.262874 1.418169 -1.801521
2008-02-07 07:38:18 51°13.968 2°55.587 -999 0.262874 1.418274 -1.836345
2008-02-07 07:38:23 51°13.974 2°55.579 -999 0.262874 1.418406 -1.801521
2008-02-07 07:38:28 51°13.98 2°55.571 -999 0.262874 1.418485 -1.801521
2008-02-07 07:38:33 51°13.987 2°55.563 -999 0.262874 1.418537 -1.801521
2008-02-07 07:38:38 51°13.993 2°55.555 -999 0.262874 1.418537 -1.801521
2008-02-07 07:38:43 51°14.001 2°55.546 -999 0.262874 1.418537 -1.801521
2008-02-07 07:38:48 51°14.008 2°55.537 -999 0.262874 1.418564 -1.801521
2008-02-07 07:38:52 51°14.014 2°55.53 -999 0.262874 1.41859 -1.801521
2008-02-07 07:38:57 51°14.022 2°55.522 -999 0.262874 1.418643 -1.801521
2008-02-07 07:39:02 51°14.03 2°55.513 -999 0.262874 1.418695 -1.801521
2008-02-07 07:39:07 51°14.039 2°55.505 -999 0.262874 1.418695 -1.801521
2008-02-07 07:39:12 51°14.047 2°55.496 -999 0.262874 1.418748 -1.801521
2008-02-07 07:39:17 51°14.056 2°55.487 -999 0.262874 1.418801 -1.801521
2008-02-07 07:39:22 51°14.065 2°55.478 -999 0.262874 1.418801 -1.801521
2008-02-07 07:39:27 51°14.073 2°55.469 -999 0.262874 1.418801 -1.801521
2008-02-07 07:39:33 51°14.085 2°55.458 -999 0.262874 1.418827 -1.801521
2008-02-07 07:39:38 51°14.094 2°55.449 -999 0.262874 1.418827 -1.801521
2008-02-07 07:39:43 51°14.103 2°55.44 -999 0.262874 1.418827 -1.801521
2008-02-07 07:39:48 51°14.113 2°55.431 -999 0.262874 1.418853 -1.801521
2008-02-07 07:39:53 51°14.122 2°55.422 -999 0.262874 1.418853 -1.801521
2008-02-07 07:39:58 51°14.132 2°55.413 -999 0.262874 1.41888 -1.801521
2008-02-07 07:40:03 51°14.141 2°55.403 -999 0.262874 1.418906 -1.801521
2008-02-07 07:40:08 51°14.151 2°55.394 -999 0.262874 1.418906 -1.801521
2008-02-07 07:40:13 51°14.16 2°55.384 -999 0.262874 1.418932 -1.801521
2008-02-07 07:40:18 51°14.169 2°55.374 -999 0.262874 1.418959 -1.801521
2008-02-07 07:40:23 51°14.178 2°55.364 -999 0.262874 1.418959 -1.801521
2008-02-07 07:40:28 51°14.188 2°55.353 -999 0.262874 1.418985 -1.801521
2008-02-07 07:40:33 51°14.198 2°55.342 -999 0.262874 1.419012 -1.801521
2008-02-07 07:40:38 51°14.208 2°55.33 -999 0.262874 1.419012 -1.801521
2008-02-07 07:40:43 51°14.217 2°55.317 -999 0.262874 1.419038 -1.801521
2008-02-07 07:40:48 51°14.227 2°55.305 -999 0.262874 1.419064 -1.801521
2008-02-07 07:40:52 51°14.235 2°55.295 -999 0.262874 1.419064 -1.801521
2008-02-07 07:40:57 51°14.244 2°55.281 -999 0.262874 1.419064 -1.801521
2008-02-07 07:41:02 51°14.254 2°55.267 -999 0.262874 1.419091 -1.801521
2008-02-07 07:41:07 51°14.263 2°55.252 -999 0.262874 1.419091 -1.801521
2008-02-07 07:41:12 51°14.272 2°55.237 -999 0.262874 1.419117 -1.801521
2008-02-07 07:41:17 51°14.281 2°55.221 -999 0.262771 1.418531 -1.801521
2008-02-07 07:41:22 51°14.29 2°55.204 -999 0.262771 1.418504 -1.801521
2008-02-07 07:41:27 51°14.298 2°55.187 -999 0.262771 1.418452 -1.801521
2008-02-07 07:41:32 51°14.307 2°55.17 -999 0.262771 1.418478 -1.801521
2008-02-07 07:41:37 51°14.315 2°55.152 -999 0.262771 1.418478 -1.801521
2008-02-07 07:41:42 51°14.323 2°55.135 -999 0.262771 1.418531 -1.801521
2008-02-07 07:41:47 51°14.332 2°55.117 -999 0.262771 1.418583 -1.801521
2008-02-07 07:41:51 51°14.339 2°55.103 -999 0.262771 1.418636 -1.801521
2008-02-07 07:41:56 51°14.347 2°55.085 -999 0.262771 1.418636 -1.801521
2008-02-07 07:42:01 51°14.356 2°55.065 -999 0.262771 1.418689 -1.801521
2008-02-07 07:42:06 51°14.365 2°55.046 -999 0.262771 1.418689 -1.801521
2008-02-07 07:42:11 51°14.373 2°55.027 -999 0.262771 1.418715 -1.801521
2008-02-07 07:42:16 51°14.382 2°55.008 -999 0.262771 1.418742 -1.801521
2008-02-07 07:42:21 51°14.39 2°54.988 -999 0.262771 1.418742 -1.801521
2008-02-07 07:42:26 51°14.399 2°54.968 -999 0.262771 1.418742 -1.801521
2008-02-07 07:42:31 51°14.408 2°54.948 -999 0.262771 1.418742 -1.801521
2008-02-07 07:42:36 51°14.417 2°54.929 -999 0.262771 1.418742 -1.801521
2008-02-07 07:42:41 51°14.427 2°54.909 -999 0.262771 1.418794 -1.801521
2008-02-07 07:42:46 51°14.437 2°54.889 -999 0.262771 1.418821 -1.801521
2008-02-07 07:42:51 51°14.447 2°54.869 -999 0.262771 1.418847 -1.801521
2008-02-07 07:42:55 51°14.455 2°54.852 -999 0.262771 1.418847 -1.801521
2008-02-07 07:43:00 51°14.465 2°54.832 -999 0.262771 1.418847 -1.801521
2008-02-07 07:43:05 51°14.475 2°54.81 -999 0.262771 1.418847 -1.801521
2008-02-07 07:43:10 51°14.484 2°54.789 -999 0.262771 1.418847 -1.801521
2008-02-07 07:43:15 51°14.494 2°54.767 -999 0.262771 1.4189 -1.801521
2008-02-07 07:43:20 51°14.504 2°54.744 -999 0.262771 1.418979 -1.801521
2008-02-07 07:43:25 51°14.514 2°54.721 -999 0.262771 1.419032 -1.801521
2008-02-07 07:43:30 51°14.523 2°54.698 -999 0.262771 1.419058 -1.801521
2008-02-07 07:43:35 51°14.532 2°54.675 -999 0.262771 1.419058 -1.801521
2008-02-07 07:43:39 51°14.54 2°54.656 -999 0.262771 1.419084 -1.801521
2008-02-07 07:43:44 51°14.55 2°54.632 -999 0.262771 1.419084 -1.801521
2008-02-07 07:43:50 51°14.561 2°54.604 -999 0.262771 1.419084 -1.801521
2008-02-07 07:43:55 51°14.57 2°54.58 -999 0.262771 1.419111 -1.801521
2008-02-07 07:43:59 51°14.578 2°54.561 -999 0.262668 1.418577 -1.801521
2008-02-07 07:44:04 51°14.587 2°54.537 -999 0.262668 1.418577 -1.801521
2008-02-07 07:44:10 51°14.598 2°54.508 -999 0.262668 1.41863 -1.801521
2008-02-07 07:44:15 51°14.608 2°54.484 -999 0.262668 1.418656 -1.801521
2008-02-07 07:44:20 51°14.617 2°54.46 -999 0.262668 1.418682 -1.801521
2008-02-07 07:44:25 51°14.627 2°54.436 -999 0.262668 1.418709 -1.801521
2008-02-07 07:44:30 51°14.637 2°54.412 -999 0.262668 1.418735 -1.801521
2008-02-07 07:44:35 51°14.646 2°54.388 -999 0.262668 1.418735 -1.801521
2008-02-07 07:44:39 51°14.654 2°54.369 -999 0.262668 1.418762 -1.801521
2008-02-07 07:44:45 51°14.665 2°54.34 -999 0.262668 1.418814 -1.801521
2008-02-07 07:44:50 51°14.675 2°54.316 -999 0.262668 1.418841 -1.766697
2008-02-07 07:44:55 51°14.684 2°54.291 -999 0.262668 1.418867 -1.801521
2008-02-07 07:45:00 51°14.693 2°54.267 -999 0.262668 1.418867 -1.801521
2008-02-07 07:45:05 51°14.702 2°54.243 -999 0.262668 1.418867 -1.801521
2008-02-07 07:45:10 51°14.711 2°54.218 -999 0.262668 1.41892 -1.801521
2008-02-07 07:45:15 51°14.721 2°54.194 -999 0.262668 1.418946 -1.801521
2008-02-07 07:45:19 51°14.728 2°54.175 -999 0.262668 1.418946 -1.801521
2008-02-07 07:45:25 51°14.739 2°54.146 -999 0.262668 1.418999 -1.801521
2008-02-07 07:45:30 51°14.748 2°54.122 -999 0.262668 1.419025 -1.801521
2008-02-07 07:45:35 51°14.758 2°54.098 -999 0.262668 1.419025 -1.801521
2008-02-07 07:45:39 51°14.765 2°54.079 -999 0.262668 1.419052 -1.801521
2008-02-07 07:45:45 51°14.776 2°54.051 -999 0.262668 1.419105 -1.801521
2008-02-07 07:45:50 51°14.785 2°54.027 -999 0.262668 1.419131 -1.801521
2008-02-07 07:45:55 51°14.794 2°54.002 -999 0.262668 1.419157 -1.801521
2008-02-07 07:45:59 51°14.801 2°53.983 -999 0.262668 1.419184 -1.766697
2008-02-07 07:46:04 51°14.81 2°53.959 -999 0.262668 1.419184 -1.766697
2008-02-07 07:46:10 51°14.82 2°53.93 -999 0.262668 1.41921 -1.801521
2008-02-07 07:46:15 51°14.829 2°53.906 -999 0.262668 1.419263 -1.801521
2008-02-07 07:46:19 51°14.836 2°53.887 -999 0.262668 1.419289 -1.801521
2008-02-07 07:46:24 51°14.845 2°53.863 -999 0.262668 1.419342 -1.801521
2008-02-07 07:46:30 51°14.856 2°53.834 -999 0.262668 1.419368 -1.801521
2008-02-07 07:46:35 51°14.864 2°53.81 -999 0.262668 1.419368 -1.801521
2008-02-07 07:46:40 51°14.873 2°53.786 -999 0.262565 1.418808 -1.801521
2008-02-07 07:46:45 51°14.882 2°53.761 -999 0.262668 1.419448 -1.801521
2008-02-07 07:46:50 51°14.89 2°53.737 -999 0.262565 1.418887 -1.801521
2008-02-07 07:46:55 51°14.899 2°53.713 -999 0.262668 1.4195 -1.801521
2008-02-07 07:47:00 51°14.908 2°53.689 -999 0.262668 1.419527 -1.801521
2008-02-07 07:47:04 51°14.916 2°53.67 -999 0.262668 1.419527 -1.801521
2008-02-07 07:47:09 51°14.925 2°53.646 -999 0.262668 1.419553 -1.801521
2008-02-07 07:47:15 51°14.936 2°53.618 -999 0.262565 1.418993 -1.801521
2008-02-07 07:47:20 51°14.945 2°53.594 -999 0.262565 1.418993 -1.801521
2008-02-07 07:47:25 51°14.954 2°53.57 -999 0.262668 1.419633 -1.801521
2008-02-07 07:47:30 51°14.963 2°53.546 -999 0.262565 1.419046 -1.801521
2008-02-07 07:47:35 51°14.972 2°53.522 -999 0.262565 1.419046 -1.801521
2008-02-07 07:47:39 51°14.98 2°53.502 -999 0.262565 1.419072 -1.801521
2008-02-07 07:47:45 51°14.991 2°53.473 -999 0.262565 1.419098 -1.801521
2008-02-07 07:47:50 51°15 2°53.449 -999 0.262668 1.419685 -1.801521
2008-02-07 07:47:55 51°15.009 2°53.425 -999 0.262565 1.419151 -1.801521
2008-02-07 07:47:59 51°15.016 2°53.405 -999 0.262565 1.419151 -1.801521
2008-02-07 07:48:05 51°15.026 2°53.376 -999 0.262565 1.419151 -1.801521
2008-02-07 07:48:10 51°15.036 2°53.352 -999 0.262565 1.419204 -1.801521
2008-02-07 07:48:15 51°15.044 2°53.327 -999 0.262565 1.419204 -1.801521
2008-02-07 07:48:19 51°15.052 2°53.308 -999 0.262565 1.41923 -1.801521
2008-02-07 07:48:25 51°15.063 2°53.279 -999 0.262565 1.419283 -1.801521
2008-02-07 07:48:30 51°15.072 2°53.254 -999 0.262565 1.41931 -1.801521
2008-02-07 07:48:35 51°15.081 2°53.23 -999 0.262565 1.41931 -1.801521
2008-02-07 07:48:39 51°15.088 2°53.211 -999 0.262565 1.419336 -1.801521
2008-02-07 07:48:44 51°15.097 2°53.186 -999 0.262565 1.419362 -1.801521
2008-02-07 07:48:50 51°15.108 2°53.157 -999 0.262565 1.419415 -1.801521
2008-02-07 07:48:55 51°15.117 2°53.132 -999 0.262565 1.419415 -1.801521
2008-02-07 07:49:00 51°15.126 2°53.108 -999 0.262565 1.419468 -1.801521
2008-02-07 07:49:05 51°15.135 2°53.084 -999 0.262565 1.419468 -1.801521
2008-02-07 07:49:10 51°15.144 2°53.059 -999 0.262565 1.419495 -1.801521
2008-02-07 07:49:15 51°15.153 2°53.035 -999 0.262565 1.419521 -1.801521
2008-02-07 07:49:20 51°15.162 2°53.011 -999 0.262565 1.419547 -1.801521
2008-02-07 07:49:24 51°15.17 2°52.991 -999 0.262565 1.4196 -1.801521
2008-02-07 07:49:30 51°15.18 2°52.962 -999 0.262565 1.419627 -1.801521
2008-02-07 07:49:35 51°15.19 2°52.938 -999 0.262565 1.419627 -1.801521
2008-02-07 07:49:40 51°15.199 2°52.913 -999 0.262565 1.419627 -1.801521
2008-02-07 07:49:45 51°15.208 2°52.889 -999 0.262565 1.419679 -1.801521
2008-02-07 07:49:50 51°15.218 2°52.865 -999 0.262565 1.419679 -1.801521
2008-02-07 07:49:55 51°15.227 2°52.841 -999 0.262565 1.419706 -1.801521
2008-02-07 07:50:00 51°15.237 2°52.816 -999 0.262565 1.419732 -1.801521
2008-02-07 07:50:05 51°15.246 2°52.792 -999 0.262565 1.419732 -1.801521
2008-02-07 07:50:10 51°15.255 2°52.767 -999 0.262565 1.419759 -1.801521
2008-02-07 07:50:15 51°15.264 2°52.743 -999 0.262565 1.419785 -1.801521
2008-02-07 07:50:19 51°15.272 2°52.724 -999 0.262565 1.419812 -1.801521
2008-02-07 07:50:25 51°15.283 2°52.695 -999 0.262565 1.419864 -1.801521
2008-02-07 07:50:30 51°15.293 2°52.67 -999 0.262565 1.419891 -1.801521
2008-02-07 07:50:35 51°15.302 2°52.646 -999 0.262565 1.419891 -1.801521
2008-02-07 07:50:40 51°15.311 2°52.622 -999 0.262565 1.419917 -1.801521
2008-02-07 07:50:44 51°15.319 2°52.602 -999 0.262565 1.419944 -1.801521
2008-02-07 07:50:50 51°15.33 2°52.573 -999 0.262565 1.41997 -1.801521
2008-02-07 07:50:55 51°15.34 2°52.549 -999 0.262565 1.420023 -1.801521
2008-02-07 07:51:00 51°15.349 2°52.524 -999 0.262565 1.42005 -1.801521
2008-02-07 07:51:04 51°15.357 2°52.505 -999 0.262565 1.42005 -1.801521
2008-02-07 07:51:09 51°15.365 2°52.48 -999 0.262051 1.416691 -1.801521
2008-02-07 07:51:15 51°15.376 2°52.449 -999 0.262462 1.420229 -1.801521
2008-02-07 07:51:20 51°15.383 2°52.423 -999 0.44284 2.486203 -1.557753
2008-02-07 07:51:26 51°15.391 2°52.391 -999 0.440781 2.476761 -1.627401
2008-02-07 07:51:31 51°15.397 2°52.363 -999 1.240712 7.686348 -0.7568
2008-02-07 07:51:36 51°15.403 2°52.336 -999 1.240712 7.686348 -0.7568
2008-02-07 07:51:40 51°15.407 2°52.314 -999 2.136402 14.782479 -0.547855
2008-02-07 07:51:45 51°15.413 2°52.286 -999 2.583325 19.628471 0.35757
2008-02-07 07:51:50 51°15.418 2°52.258 -999 3.102183 25.144283 1.088875
2008-02-07 07:51:55 51°15.423 2°52.23 -999 3.233991 27.411739 1.262995
2008-02-07 07:52:00 51°15.427 2°52.201 -999 3.358892 29.353976 1.019227
2008-02-07 07:52:05 51°15.432 2°52.173 -999 3.358892 29.353976 1.019227
2008-02-07 07:52:11 51°15.438 2°52.138 -999 3.412657 30.466144 0.879931
2008-02-07 07:52:15 51°15.442 2°52.116 -999 3.47813 31.436545 0.914755
2008-02-07 07:52:20 51°15.446 2°52.087 -999 3.473057 31.600998 0.810283
2008-02-07 07:52:25 51°15.451 2°52.058 -999 3.435662 31.408608 0.670986
2008-02-07 07:52:31 51°15.457 2°52.024 -999 3.456693 31.754119 0.775459
2008-02-07 07:52:36 51°15.461 2°51.995 -999 3.456693 31.754119 0.775459
2008-02-07 07:52:40 51°15.465 2°51.972 -999 3.458248 31.841262 0.53169
2008-02-07 07:52:45 51°15.468 2°51.943 -999 3.449961 31.803582 0.984403
2008-02-07 07:52:50 51°15.472 2°51.914 -999 3.44789 31.859237 1.785356
2008-02-07 07:52:55 51°15.475 2°51.885 -999 3.458458 32.069869 1.332643
2008-02-07 07:53:00 51°15.477 2°51.855 -999 3.445302 32.015692 1.262995
2008-02-07 07:53:05 51°15.479 2°51.825 -999 3.445302 32.015692 1.262995
2008-02-07 07:53:11 51°15.481 2°51.789 -999 3.42386 31.850977 1.123699
2008-02-07 07:53:15 51°15.481 2°51.765 -999 3.452762 32.176254 1.019227
2008-02-07 07:53:20 51°15.482 2°51.736 -999 3.451312 32.196951 0.949579
2008-02-07 07:53:25 51°15.483 2°51.706 -999 3.441782 32.114317 0.949579
2008-02-07 07:53:31 51°15.483 2°51.67 -999 3.45038 32.211432 0.914755
2008-02-07 07:53:36 51°15.483 2°51.64 -999 3.45038 32.211432 0.914755
2008-02-07 07:53:40 51°15.483 2°51.616 -999 3.439814 32.111765 0.914755
2008-02-07 07:53:46 51°15.483 2°51.58 -999 3.447376 32.193712 0.879931
2008-02-07 07:53:50 51°15.483 2°51.556 -999 3.440436 32.130702 0.879931
2008-02-07 07:53:56 51°15.481 2°51.52 -999 3.447273 32.199796 0.845107
2008-02-07 07:54:00 51°15.48 2°51.496 -999 3.441575 32.140728 0.845107
2008-02-07 07:54:06 51°15.478 2°51.46 -999 3.441575 32.140728 0.845107
2008-02-07 07:54:10 51°15.477 2°51.436 -999 3.440436 32.131595 0.845107
2008-02-07 07:54:15 51°15.475 2°51.406 -999 3.438882 32.123523 0.810283
2008-02-07 07:54:20 51°15.473 2°51.376 -999 3.438882 32.128882 0.845107
2008-02-07 07:54:25 51°15.471 2°51.346 -999 3.451727 32.260333 0.810283
2008-02-07 07:54:30 51°15.469 2°51.316 -999 3.451106 32.257472 0.845107
2008-02-07 07:54:36 51°15.467 2°51.281 -999 3.451106 32.257472 0.845107
2008-02-07 07:54:40 51°15.466 2°51.257 -999 3.446858 32.213405 0.775459
2008-02-07 07:54:45 51°15.463 2°51.227 -999 3.45152 32.259977 0.740634
2008-02-07 07:54:50 51°15.462 2°51.197 -999 3.452763 32.276466 0.740634
2008-02-07 07:54:56 51°15.459 2°51.161 -999 3.453178 32.280766 0.740634
2008-02-07 07:55:00 51°15.457 2°51.137 -999 3.453696 32.284346 0.70581
2008-02-07 07:55:05 51°15.456 2°51.107 -999 3.453696 32.284346 0.70581
2008-02-07 07:55:11 51°15.454 2°51.07 -999 3.453696 32.282551 0.70581
2008-02-07 07:55:16 51°15.452 2°51.04 -999 3.452349 32.264091 0.70581
2008-02-07 07:55:20 51°15.451 2°51.016 -999 3.452245 32.26481 0.70581
2008-02-07 07:55:25 51°15.45 2°50.986 -999 3.454524 32.289355 0.70581
2008-02-07 07:55:31 51°15.449 2°50.95 -999 3.455664 32.297588 0.670986
2008-02-07 07:55:36 51°15.448 2°50.92 -999 3.455664 32.297588 0.670986
2008-02-07 07:55:40 51°15.448 2°50.895 -999 3.448205 32.218417 0.70581
2008-02-07 07:55:45 51°15.447 2°50.865 -999 3.454939 32.290064 0.670986
2008-02-07 07:55:50 51°15.446 2°50.835 -999 3.454835 32.288091 0.636162
2008-02-07 07:55:56 51°15.445 2°50.799 -999 3.457218 32.311915 0.636162
2008-02-07 07:56:00 51°15.444 2°50.775 -999 3.455042 32.28665 0.636162
2008-02-07 07:56:05 51°15.442 2°50.744 -999 3.455042 32.28665 0.636162
2008-02-07 07:56:10 51°15.441 2°50.714 -999 3.4567 32.302051 0.670986
2008-02-07 07:56:16 51°15.438 2°50.678 -999 3.456907 32.302404 0.670986
2008-02-07 07:56:20 51°15.437 2°50.654 -999 3.455871 32.294351 0.670986
2008-02-07 07:56:25 51°15.435 2°50.624 -999 3.461258 32.349344 0.670986
2008-02-07 07:56:30 51°15.434 2°50.594 -999 3.455456 32.286462 0.70581
2008-02-07 07:56:35 51°15.433 2°50.564 -999 3.455456 32.286462 0.70581
2008-02-07 07:56:40 51°15.431 2°50.533 -999 3.4596 32.331247 0.70581
2008-02-07 07:56:46 51°15.429 2°50.497 -999 3.461465 32.348797 0.740634
2008-02-07 07:56:50 51°15.428 2°50.473 -999 3.459186 32.324252 0.70581
2008-02-07 07:56:56 51°15.426 2°50.437 -999 3.461258 32.343051 0.70581
2008-02-07 07:57:00 51°15.425 2°50.412 -999 3.465816 32.388545 0.740634
2008-02-07 07:57:06 51°15.424 2°50.376 -999 3.465816 32.388545 0.740634
2008-02-07 07:57:11 51°15.423 2°50.346 -999 3.463226 32.362573 0.740634
2008-02-07 07:57:16 51°15.422 2°50.316 -999 3.461983 32.351474 0.775459
2008-02-07 07:57:20 51°15.421 2°50.292 -999 3.466645 32.397145 0.740634
2008-02-07 07:57:25 51°15.42 2°50.262 -999 3.465609 32.380097 0.775459
2008-02-07 07:57:31 51°15.419 2°50.226 -999 3.467991 32.401215 0.740634
2008-02-07 07:57:36 51°15.418 2°50.195 -999 3.467991 32.401215 0.740634
2008-02-07 07:57:40 51°15.416 2°50.171 -999 3.469027 32.409261 0.775459
2008-02-07 07:57:45 51°15.415 2°50.141 -999 3.466437 32.377899 0.775459
2008-02-07 07:57:51 51°15.412 2°50.105 -999 3.463951 32.347623 0.810283
2008-02-07 07:57:56 51°15.411 2°50.075 -999 3.47027 32.408654 0.879931
2008-02-07 07:58:00 51°15.409 2°50.051 -999 3.472031 32.424216 0.810283
2008-02-07 07:58:05 51°15.408 2°50.022 -999 3.472031 32.424216 0.810283
2008-02-07 07:58:10 51°15.407 2°49.992 -999 3.469545 32.394837 0.845107
2008-02-07 07:58:16 51°15.405 2°49.955 -999 3.470166 32.400382 0.879931
2008-02-07 07:58:20 51°15.404 2°49.932 -999 3.469959 32.396435 0.845107
2008-02-07 07:58:25 51°15.402 2°49.901 -999 3.469545 32.388543 0.845107
2008-02-07 07:58:30 51°15.402 2°49.872 -999 3.473378 32.426478 0.879931
2008-02-07 07:58:36 51°15.399 2°49.836 -999 3.473378 32.426478 0.879931
2008-02-07 07:58:40 51°15.399 2°49.812 -999 3.470581 32.393887 0.845107
2008-02-07 07:58:45 51°15.397 2°49.782 -999 3.473792 32.425374 0.879931
2008-02-07 07:58:50 51°15.396 2°49.752 -999 3.473171 32.415333 0.879931
2008-02-07 07:58:55 51°15.395 2°49.722 -999 3.471306 32.392413 0.879931
2008-02-07 07:59:00 51°15.393 2°49.692 -999 3.475346 32.431582 0.914755
2008-02-07 07:59:06 51°15.391 2°49.656 -999 3.475346 32.431582 0.914755
2008-02-07 07:59:10 51°15.39 2°49.632 -999 3.477314 32.448379 0.914755
2008-02-07 07:59:15 51°15.389 2°49.602 -999 3.475035 32.419367 0.879931
2008-02-07 07:59:20 51°15.388 2°49.572 -999 3.479075 32.458526 0.914755
2008-02-07 07:59:26 51°15.387 2°49.536 -999 3.472134 32.383931 0.879931
2008-02-07 07:59:30 51°15.385 2°49.512 -999 3.476175 32.42308 0.879931
2008-02-07 07:59:36 51°15.384 2°49.476 -999 3.476175 32.42308 0.879931
2008-02-07 07:59:40 51°15.383 2°49.452 -999 3.478661 32.447035 0.879931
2008-02-07 07:59:45 51°15.382 2°49.423 -999 3.47431 32.399275 0.845107
2008-02-07 07:59:51 51°15.381 2°49.387 -999 3.480215 32.457732 0.914755
2008-02-07 07:59:56 51°15.379 2°49.357 -999 3.480422 32.457179 0.914755
2008-02-07 07:59:59 51°15.378 2°49.339 -999 3.482908 32.482029 0.914755
2008-02-07 08:00:05 51°15.377 2°49.303 -999 3.482908 32.482029 0.914755
2008-02-07 08:00:10 51°15.375 2°49.273 -999 3.472031 32.368497 0.879931
2008-02-07 08:00:16 51°15.374 2°49.238 -999 3.478039 32.430706 0.914755
2008-02-07 08:00:20 51°15.373 2°49.214 -999 3.478143 32.43088 0.879931
2008-02-07 08:00:25 51°15.371 2°49.184 -999 3.480733 32.4541 0.949579
2008-02-07 08:00:30 51°15.37 2°49.154 -999 3.476382 32.408154 0.914755
2008-02-07 08:00:36 51°15.369 2°49.118 -999 3.476382 32.408154 0.914755
2008-02-07 08:00:40 51°15.368 2°49.095 -999 3.48353 32.480365 0.914755
2008-02-07 08:00:45 51°15.367 2°49.065 -999 3.478868 32.430299 0.879931
2008-02-07 08:00:50 51°15.367 2°49.035 -999 3.483841 32.479083 0.879931
2008-02-07 08:00:56 51°15.366 2°48.999 -999 3.483944 32.480155 0.879931
2008-02-07 08:01:00 51°15.365 2°48.975 -999 3.478557 32.42259 0.914755
2008-02-07 08:01:05 51°15.364 2°48.946 -999 3.478557 32.42259 0.914755
2008-02-07 08:01:11 51°15.363 2°48.91 -999 3.484151 32.478701 0.914755
2008-02-07 08:01:16 51°15.362 2°48.88 -999 3.481769 32.453136 0.845107
2008-02-07 08:01:20 51°15.361 2°48.857 -999 3.485084 32.486554 0.879931
2008-02-07 08:01:26 51°15.359 2°48.821 -999 3.481354 32.447948 0.845107
2008-02-07 08:01:31 51°15.358 2°48.791 -999 3.484151 32.476002 0.914755
2008-02-07 08:01:36 51°15.357 2°48.762 -999 3.484151 32.476002 0.914755
2008-02-07 08:01:40 51°15.356 2°48.738 -999 3.486016 32.494406 0.914755
2008-02-07 08:01:45 51°15.355 2°48.709 -999 3.485498 32.487244 0.914755
2008-02-07 08:01:50 51°15.354 2°48.679 -999 3.48094 32.439165 0.914755
2008-02-07 08:01:55 51°15.353 2°48.649 -999 3.483426 32.464898 0.879931
2008-02-07 08:02:00 51°15.351 2°48.62 -999 3.490264 32.533876 0.914755
2008-02-07 08:02:05 51°15.35 2°48.59 -999 3.490264 32.533876 0.914755
2008-02-07 08:02:10 51°15.349 2°48.561 -999 3.489021 32.520105 0.914755
2008-02-07 08:02:16 51°15.347 2°48.525 -999 3.488088 32.509553 0.949579
2008-02-07 08:02:20 51°15.346 2°48.502 -999 3.49016 32.530101 0.879931
2008-02-07 08:02:25 51°15.344 2°48.472 -999 3.486016 32.487207 0.914755
2008-02-07 08:02:30 51°15.343 2°48.443 -999 3.492336 32.551722 0.914755
2008-02-07 08:02:36 51°15.342 2°48.408 -999 3.492336 32.551722 0.914755
2008-02-07 08:02:40 51°15.341 2°48.384 -999 3.493268 32.560473 0.879931
2008-02-07 08:02:45 51°15.34 2°48.356 -999 3.489228 32.517747 0.914755
2008-02-07 08:02:50 51°15.338 2°48.326 -999 3.492854 32.553478 0.879931
2008-02-07 08:02:56 51°15.337 2°48.292 -999 3.490264 32.523067 0.914755
2008-02-07 08:03:00 51°15.335 2°48.269 -999 3.49389 32.557892 0.984403
2008-02-07 08:03:06 51°15.333 2°48.234 -999 3.49389 32.557892 0.984403
2008-02-07 08:03:10 51°15.333 2°48.211 -999 3.493164 32.549485 0.984403
2008-02-07 08:03:15 51°15.331 2°48.182 -999 3.495858 32.57556 0.914755
2008-02-07 08:03:20 51°15.329 2°48.153 -999 3.495547 32.569639 0.949579
2008-02-07 08:03:25 51°15.328 2°48.124 -999 3.496894 32.581773 0.949579
2008-02-07 08:03:30 51°15.326 2°48.096 -999 3.498034 32.589959 0.984403
2008-02-07 08:03:36 51°15.325 2°48.061 -999 3.498034 32.589959 0.984403
2008-02-07 08:03:40 51°15.323 2°48.038 -999 3.493889 32.544377 0.984403
2008-02-07 08:03:45 51°15.322 2°48.009 -999 3.496272 32.567227 1.019227
2008-02-07 08:03:51 51°15.32 2°47.974 -999 3.449136 32.076511 0.949579
2008-02-07 08:03:56 51°15.319 2°47.946 -999 3.491921 32.515015 0.984403
2008-02-07 08:04:00 51°15.318 2°47.922 -999 3.495651 32.551789 0.949579
2008-02-07 08:04:05 51°15.316 2°47.894 -999 3.495651 32.551789 0.949579
2008-02-07 08:04:11 51°15.315 2°47.859 -999 3.493578 32.528559 0.949579
2008-02-07 08:04:16 51°15.313 2°47.83 -999 3.497515 32.566573 0.949579
2008-02-07 08:04:20 51°15.312 2°47.807 -999 3.499795 32.588344 0.984403
2008-02-07 08:04:25 51°15.311 2°47.778 -999 3.500416 32.59297 0.984403
2008-02-07 08:04:30 51°15.31 2°47.75 -999 3.500727 32.592579 0.949579
2008-02-07 08:04:36 51°15.308 2°47.715 -999 3.500727 32.592579 0.949579
2008-02-07 08:04:40 51°15.307 2°47.692 -999 3.49824 32.565966 0.949579
2008-02-07 08:04:45 51°15.306 2°47.663 -999 3.497722 32.558809 0.984403
2008-02-07 08:04:50 51°15.304 2°47.634 -999 3.505182 32.635045 0.984403
2008-02-07 08:04:56 51°15.302 2°47.599 -999 3.505596 32.636623 0.914755
2008-02-07 08:05:00 51°15.301 2°47.576 -999 3.505596 32.635721 0.914755
2008-02-07 08:05:05 51°15.3 2°47.546 -999 3.505596 32.635721 0.914755
2008-02-07 08:05:10 51°15.299 2°47.517 -999 3.505285 32.630702 0.949579
2008-02-07 08:05:15 51°15.298 2°47.488 -999 3.505078 32.626756 0.949579
2008-02-07 08:05:20 51°15.296 2°47.459 -999 3.507565 32.652468 0.914755
2008-02-07 08:05:26 51°15.295 2°47.424 -999 3.506943 32.646039 0.914755
2008-02-07 08:05:30 51°15.293 2°47.401 -999 3.505803 32.633352 0.914755
2008-02-07 08:05:35 51°15.292 2°47.371 -999 3.505803 32.633352 0.914755
2008-02-07 08:05:40 51°15.291 2°47.342 -999 3.506218 32.63854 0.914755
2008-02-07 08:05:46 51°15.289 2°47.307 -999 3.508601 32.663182 0.914755
2008-02-07 08:05:50 51°15.288 2°47.284 -999 3.508912 32.665493 0.914755
2008-02-07 08:05:55 51°15.287 2°47.254 -999 3.507461 32.648688 0.914755
2008-02-07 08:06:00 51°15.286 2°47.225 -999 3.507875 32.652071 0.949579
2008-02-07 08:06:06 51°15.285 2°47.19 -999 3.507875 32.652071 0.949579
2008-02-07 08:06:10 51°15.285 2°47.166 -999 3.507565 32.647955 0.984403
2008-02-07 08:06:16 51°15.284 2°47.131 -999 3.508601 32.658667 0.984403
2008-02-07 08:06:20 51°15.282 2°47.108 -999 3.507772 32.649195 0.949579
2008-02-07 08:06:25 51°15.282 2°47.078 -999 3.508808 32.659004 0.949579
2008-02-07 08:06:31 51°15.28 2°47.043 -999 3.509119 32.662218 0.949579
2008-02-07 08:06:36 51°15.279 2°47.013 -999 3.509119 32.662218 0.949579
2008-02-07 08:06:40 51°15.278 2°46.989 -999 3.51088 32.679527 0.949579
2008-02-07 08:06:45 51°15.276 2°46.96 -999 3.507668 32.644514 0.949579
2008-02-07 08:06:51 51°15.275 2°46.924 -999 3.512745 32.696101 0.984403
2008-02-07 08:06:56 51°15.274 2°46.895 -999 3.51088 32.675915 0.984403
2008-02-07 08:07:00 51°15.273 2°46.871 -999 3.511398 32.681271 0.984403
2008-02-07 08:07:05 51°15.273 2°46.841 -999 3.511398 32.681271 0.984403
2008-02-07 08:07:10 51°15.271 2°46.812 -999 3.512123 32.687866 0.949579
2008-02-07 08:07:15 51°15.27 2°46.782 -999 3.509326 32.658042 0.984403
2008-02-07 08:07:20 51°15.269 2°46.752 -999 3.513574 32.701056 0.984403
2008-02-07 08:07:25 51°15.269 2°46.723 -999 3.511605 32.6798 0.984403
2008-02-07 08:07:30 51°15.268 2°46.693 -999 3.511294 32.676587 0.984403
2008-02-07 08:07:35 51°15.267 2°46.663 -999 3.511294 32.676587 0.984403
2008-02-07 08:07:40 51°15.266 2°46.634 -999 3.509844 32.66069 1.019227
2008-02-07 08:07:45 51°15.264 2°46.604 -999 3.513263 32.694229 0.984403
2008-02-07 08:07:50 51°15.264 2°46.574 -999 3.51347 32.695467 0.984403
2008-02-07 08:07:55 51°15.263 2°46.544 -999 3.512641 32.685996 0.949579
2008-02-07 08:08:00 51°15.262 2°46.514 -999 3.513884 32.697945 0.949579
2008-02-07 08:08:06 51°15.261 2°46.479 -999 3.513884 32.697945 0.949579
2008-02-07 08:08:10 51°15.26 2°46.455 -999 3.512019 32.677764 0.984403
2008-02-07 08:08:15 51°15.259 2°46.425 -999 3.513055 32.68757 0.984403
2008-02-07 08:08:20 51°15.259 2°46.395 -999 3.513781 32.694164 0.984403
2008-02-07 08:08:26 51°15.258 2°46.359 -999 3.515542 32.712371 0.949579
2008-02-07 08:08:30 51°15.257 2°46.335 -999 3.513884 32.694332 0.914755
2008-02-07 08:08:36 51°15.256 2°46.299 -999 3.513884 32.694332 0.914755
2008-02-07 08:08:40 51°15.256 2°46.275 -999 3.514299 32.696809 0.949579
2008-02-07 08:08:45 51°15.255 2°46.245 -999 3.513988 32.69179 0.949579
2008-02-07 08:08:51 51°15.254 2°46.208 -999 3.515853 32.711066 0.914755
2008-02-07 08:08:56 51°15.253 2°46.178 -999 3.51606 32.713207 0.879931
2008-02-07 08:09:00 51°15.252 2°46.154 -999 3.513366 32.686268 0.984403
2008-02-07 08:09:05 51°15.252 2°46.124 -999 3.513366 32.686268 0.984403
2008-02-07 08:09:11 51°15.251 2°46.088 -999 3.514195 32.693029 0.914755
2008-02-07 08:09:16 51°15.25 2°46.058 -999 3.512227 32.672684 0.914755
2008-02-07 08:09:20 51°15.249 2°46.034 -999 3.51606 32.710497 0.914755
2008-02-07 08:09:26 51°15.248 2°45.998 -999 3.51492 32.696912 0.984403
2008-02-07 08:09:30 51°15.247 2°45.974 -999 3.515749 32.704574 0.914755
2008-02-07 08:09:36 51°15.246 2°45.938 -999 3.515749 32.704574 0.914755
2008-02-07 08:09:40 51°15.245 2°45.914 -999 3.51088 32.653354 0.879931
2008-02-07 08:09:46 51°15.244 2°45.878 -999 3.513677 32.681356 0.914755
2008-02-07 08:09:50 51°15.243 2°45.854 -999 3.510672 32.648508 0.845107
2008-02-07 08:09:55 51°15.243 2°45.824 -999 3.515231 32.6929 0.914755
2008-02-07 08:10:00 51°15.241 2°45.794 -999 3.513884 32.678082 0.914755
2008-02-07 08:10:05 51°15.24 2°45.764 -999 3.513884 32.678082 0.914755
2008-02-07 08:10:11 51°15.239 2°45.727 -999 3.515335 32.692166 0.879931
2008-02-07 08:10:16 51°15.238 2°45.698 -999 3.514506 32.680895 0.949579
2008-02-07 08:10:20 51°15.237 2°45.673 -999 3.511708 32.650196 0.914755
2008-02-07 08:10:26 51°15.235 2°45.637 -999 3.515024 32.684442 0.914755
2008-02-07 08:10:31 51°15.234 2°45.607 -999 3.514402 32.677118 0.914755
2008-02-07 08:10:36 51°15.233 2°45.577 -999 3.514402 32.677118 0.914755
2008-02-07 08:10:40 51°15.232 2°45.553 -999 3.516267 32.69548 0.914755
2008-02-07 08:10:45 51°15.231 2°45.523 -999 3.517303 32.706183 0.949579
2008-02-07 08:10:51 51°15.23 2°45.487 -999 3.516578 32.697789 0.949579
2008-02-07 08:10:56 51°15.229 2°45.457 -999 3.515645 32.688157 0.914755
2008-02-07 08:11:00 51°15.228 2°45.432 -999 3.516267 32.69548 0.914755
2008-02-07 08:11:04 51°15.227 2°45.408 -999 3.516267 32.69548 0.914755
2008-02-07 08:11:10 51°15.226 2°45.372 -999 3.516785 32.701735 0.914755
2008-02-07 08:11:16 51°15.224 2°45.336 -999 3.515542 32.689793 0.949579
2008-02-07 08:11:20 51°15.223 2°45.312 -999 3.516163 32.698021 0.879931
2008-02-07 08:11:25 51°15.222 2°45.282 -999 3.514195 32.681293 0.914755
2008-02-07 08:11:30 51°15.221 2°45.252 -999 3.512952 32.670253 0.949579
2008-02-07 08:11:35 51°15.22 2°45.222 -999 3.512952 32.670253 0.949579
2008-02-07 08:11:40 51°15.219 2°45.191 -999 3.515542 32.700627 0.949579
2008-02-07 08:11:45 51°15.218 2°45.161 -999 3.514609 32.694603 0.914755
2008-02-07 08:11:50 51°15.217 2°45.131 -999 3.511191 32.663782 0.949579
2008-02-07 08:11:56 51°15.216 2°45.095 -999 3.512952 32.6865 0.914755
2008-02-07 08:12:00 51°15.215 2°45.071 -999 3.514402 32.706011 0.949579
2008-02-07 08:12:05 51°15.214 2°45.041 -999 3.514402 32.706011 0.949579
2008-02-07 08:12:10 51°15.213 2°45.01 -999 3.510569 32.671798 0.949579
2008-02-07 08:12:15 51°15.212 2°44.98 -999 3.50974 32.667743 0.949579
2008-02-07 08:12:20 51°15.211 2°44.95 -999 3.511087 32.688898 0.949579
2008-02-07 08:12:26 51°15.209 2°44.914 -999 3.510362 32.685915 0.984403
2008-02-07 08:12:30 51°15.209 2°44.889 -999 3.510155 32.690099 1.019227
2008-02-07 08:12:36 51°15.208 2°44.853 -999 3.510155 32.690099 1.019227
2008-02-07 08:12:40 51°15.206 2°44.829 -999 3.509119 32.686612 1.019227
2008-02-07 08:12:46 51°15.205 2°44.793 -999 3.507876 32.68098 1.088875
2008-02-07 08:12:51 51°15.204 2°44.762 -999 3.507772 32.688952 1.088875
2008-02-07 08:12:56 51°15.203 2°44.732 -999 3.507151 32.687945 1.088875
2008-02-07 08:13:00 51°15.202 2°44.708 -999 3.503317 32.65549 1.054051
2008-02-07 08:13:05 51°15.2 2°44.678 -999 3.503317 32.65549 1.054051
2008-02-07 08:13:11 51°15.199 2°44.642 -999 3.5057 32.687405 1.019227
2008-02-07 08:13:16 51°15.198 2°44.611 -999 3.502696 32.660809 1.054051
2008-02-07 08:13:20 51°15.197 2°44.587 -999 3.502696 32.667143 1.019227
2008-02-07 08:13:25 51°15.196 2°44.557 -999 3.502903 32.67472 1.019227
2008-02-07 08:13:31 51°15.194 2°44.521 -999 3.502903 32.679248 0.984403
2008-02-07 08:13:36 51°15.193 2°44.49 -999 3.502903 32.679248 0.984403
2008-02-07 08:13:40 51°15.192 2°44.466 -999 3.502696 32.681628 1.123699
2008-02-07 08:13:45 51°15.191 2°44.436 -999 3.501246 32.668407 0.949579
2008-02-07 08:13:50 51°15.189 2°44.406 -999 3.501246 32.671123 0.914755
2008-02-07 08:13:56 51°15.187 2°44.369 -999 3.498034 32.639645 0.879931
2008-02-07 08:14:00 51°15.186 2°44.345 -999 3.501764 32.67921 0.949579
2008-02-07 08:14:04 51°15.185 2°44.321 -999 3.501764 32.67921 0.949579
2008-02-07 08:14:10 51°15.183 2°44.285 -999 3.501142 32.672766 0.914755
2008-02-07 08:14:15 51°15.182 2°44.255 -999 3.502593 32.687802 0.879931
2008-02-07 08:14:20 51°15.18 2°44.225 -999 3.501453 32.674177 0.879931
2008-02-07 08:14:25 51°15.18 2°44.194 -999 3.502904 32.6874 0.879931
2008-02-07 08:14:30 51°15.178 2°44.164 -999 3.502593 32.680555 0.914755
2008-02-07 08:14:35 51°15.177 2°44.135 -999 3.502593 32.680555 0.914755
2008-02-07 08:14:40 51°15.176 2°44.105 -999 3.5028 32.678174 0.879931
2008-02-07 08:14:45 51°15.175 2°44.075 -999 3.505804 32.703874 0.845107
2008-02-07 08:14:50 51°15.174 2°44.045 -999 3.506011 32.69968 0.810283
2008-02-07 08:14:56 51°15.172 2°44.009 -999 3.506219 32.694581 0.845107
2008-02-07 08:15:00 51°15.171 2°43.985 -999 3.506426 32.687675 0.810283
2008-02-07 08:15:05 51°15.17 2°43.955 -999 3.506426 32.687675 0.810283
2008-02-07 08:15:10 51°15.169 2°43.925 -999 3.507358 32.689185 0.810283
2008-02-07 08:15:16 51°15.167 2°43.89 -999 3.510466 32.713219 0.845107
2008-02-07 08:15:19 51°15.166 2°43.872 -999 3.510155 32.701856 0.810283
2008-02-07 08:15:25 51°15.164 2°43.836 -999 3.510155 32.69462 0.810283
2008-02-07 08:15:31 51°15.163 2°43.8 -999 3.509844 32.683268 0.845107
2008-02-07 08:15:35 51°15.162 2°43.776 -999 3.509844 32.683268 0.845107
2008-02-07 08:15:40 51°15.161 2°43.746 -999 3.513988 32.717095 0.810283
2008-02-07 08:15:45 51°15.16 2°43.717 -999 3.51347 32.702696 0.845107
2008-02-07 08:15:50 51°15.158 2°43.687 -999 3.513884 32.697945 0.775459
2008-02-07 08:15:55 51°15.157 2°43.658 -999 3.5172 32.724084 0.740634
2008-02-07 08:15:59 51°15.156 2°43.634 -999 3.517821 32.724182 0.740634
2008-02-07 08:16:05 51°15.153 2°43.598 -999 3.517821 32.724182 0.740634
2008-02-07 08:16:10 51°15.152 2°43.569 -999 3.515853 32.697518 0.740634
2008-02-07 08:16:15 51°15.15 2°43.539 -999 3.518754 32.722975 0.740634
2008-02-07 08:16:20 51°15.149 2°43.51 -999 3.516785 32.698124 0.740634
2008-02-07 08:16:25 51°15.147 2°43.48 -999 3.516992 32.696654 0.70581
2008-02-07 08:16:30 51°15.146 2°43.45 -999 3.518235 32.705885 0.740634
2008-02-07 08:16:35 51°15.145 2°43.421 -999 3.518235 32.705885 0.740634
2008-02-07 08:16:40 51°15.144 2°43.391 -999 3.518857 32.7105 0.670986
2008-02-07 08:16:45 51°15.144 2°43.361 -999 3.521136 32.731332 0.70581
2008-02-07 08:16:51 51°15.146 2°43.327 -999 3.520515 32.723106 0.70581
2008-02-07 08:16:56 51°15.148 2°43.298 -999 3.519789 32.714714 0.670986
2008-02-07 08:17:00 51°15.15 2°43.274 -999 3.520307 32.718258 0.670986
2008-02-07 08:17:04 51°15.153 2°43.251 -999 3.520307 32.718258 0.670986
2008-02-07 08:17:10 51°15.157 2°43.217 -999 3.51865 32.699336 0.670986
2008-02-07 08:17:16 51°15.161 2°43.183 -999 3.519479 32.70609 0.670986
2008-02-07 08:17:20 51°15.165 2°43.161 -999 3.520204 32.713578 0.670986
2008-02-07 08:17:25 51°15.169 2°43.132 -999 3.521033 32.721233 0.636162
2008-02-07 08:17:31 51°15.174 2°43.098 -999 3.521654 32.727651 0.670986
2008-02-07 08:17:36 51°15.179 2°43.07 -999 3.521654 32.727651 0.670986
2008-02-07 08:17:40 51°15.182 2°43.047 -999 3.519168 32.701979 0.70581
2008-02-07 08:17:45 51°15.186 2°43.019 -999 3.518442 32.694491 0.670986
2008-02-07 08:17:51 51°15.191 2°42.985 -999 3.518546 32.697365 0.670986
2008-02-07 08:17:56 51°15.195 2°42.957 -999 3.520515 32.717689 0.670986
2008-02-07 08:18:00 51°15.198 2°42.934 -999 3.52124 32.726081 0.670986
2008-02-07 08:18:05 51°15.202 2°42.906 -999 3.52124 32.726081 0.670986
2008-02-07 08:18:10 51°15.207 2°42.877 -999 3.516992 32.68132 0.670986
2008-02-07 08:18:16 51°15.212 2°42.843 -999 3.51896 32.702546 0.70581
2008-02-07 08:18:20 51°15.215 2°42.82 -999 3.521343 32.72715 0.70581
2008-02-07 08:18:25 51°15.219 2°42.792 -999 3.519997 32.712341 0.70581
2008-02-07 08:18:30 51°15.223 2°42.764 -999 3.521862 32.731597 0.70581
2008-02-07 08:18:36 51°15.228 2°42.729 -999 3.521862 32.731597 0.70581
2008-02-07 08:18:40 51°15.231 2°42.707 -999 3.521551 32.726582 0.740634
2008-02-07 08:18:45 51°15.235 2°42.678 -999 3.519478 32.704285 0.70581
2008-02-07 08:18:50 51°15.239 2°42.65 -999 3.519478 32.704285 0.70581
2008-02-07 08:18:55 51°15.243 2°42.621 -999 3.515852 32.665951 0.740634
2008-02-07 08:19:00 51°15.246 2°42.593 -999 3.522069 32.729222 0.740634
2008-02-07 08:19:06 51°15.251 2°42.559 -999 3.522069 32.729222 0.740634
2008-02-07 08:19:10 51°15.254 2°42.536 -999 3.518753 32.694093 0.740634
2008-02-07 08:19:15 51°15.258 2°42.508 -999 3.520204 32.709066 0.70581
2008-02-07 08:19:20 51°15.262 2°42.48 -999 3.521447 32.721901 0.740634
2008-02-07 08:19:26 51°15.267 2°42.445 -999 3.519686 32.702816 0.775459
2008-02-07 08:19:30 51°15.27 2°42.423 -999 3.520307 32.707429 0.740634
2008-02-07 08:19:36 51°15.275 2°42.389 -999 3.520307 32.707429 0.740634
2008-02-07 08:19:40 51°15.278 2°42.367 -999 3.519686 32.701012 0.775459
2008-02-07 08:19:46 51°15.282 2°42.333 -999 3.52124 32.71525 0.740634
2008-02-07 08:19:51 51°15.286 2°42.305 -999 3.521965 32.721834 0.775459
2008-02-07 08:19:56 51°15.289 2°42.277 -999 3.520618 32.707931 0.810283
2008-02-07 08:20:00 51°15.292 2°42.254 -999 3.521136 32.712376 0.810283
2008-02-07 08:20:05 51°15.295 2°42.226 -999 3.521136 32.712376 0.810283
2008-02-07 08:20:11 51°15.3 2°42.192 -999 3.521654 32.716821 0.845107
2008-02-07 08:20:16 51°15.303 2°42.164 -999 3.519582 32.694533 0.775459
2008-02-07 08:20:20 51°15.306 2°42.141 -999 3.520307 32.701116 0.775459
2008-02-07 08:20:25 51°15.31 2°42.113 -999 3.521136 32.708768 0.810283
2008-02-07 08:20:31 51°15.314 2°42.079 -999 3.519375 32.68969 0.845107
2008-02-07 08:20:36 51°15.318 2°42.05 -999 3.519375 32.68969 0.845107
2008-02-07 08:20:40 51°15.321 2°42.028 -999 3.519375 32.688789 0.775459
2008-02-07 08:20:45 51°15.324 2°42 -999 3.522276 32.717824 0.845107
2008-02-07 08:20:50 51°15.328 2°41.972 -999 3.521965 32.713715 0.845107
2008-02-07 08:20:56 51°15.332 2°41.938 -999 3.521861 32.711744 0.845107
2008-02-07 08:21:00 51°15.336 2°41.915 -999 3.522794 32.720464 0.845107
2008-02-07 08:21:05 51°15.34 2°41.887 -999 3.522794 32.720464 0.845107
2008-02-07 08:21:10 51°15.346 2°41.86 -999 3.523312 32.724908 0.914755
2008-02-07 08:21:15 51°15.353 2°41.834 -999 3.52124 32.703525 0.845107
2008-02-07 08:21:20 51°15.359 2°41.808 -999 3.521447 32.704762 0.845107
2008-02-07 08:21:26 51°15.369 2°41.778 -999 3.52155 32.70493 0.879931
2008-02-07 08:21:30 51°15.376 2°41.757 -999 3.520307 32.690299 0.879931
2008-02-07 08:21:35 51°15.385 2°41.733 -999 3.520307 32.690299 0.879931
2008-02-07 08:21:40 51°15.394 2°41.709 -999 3.522586 32.712915 0.914755
2008-02-07 08:21:46 51°15.405 2°41.68 -999 3.524348 32.728382 0.949579
2008-02-07 08:21:50 51°15.413 2°41.662 -999 3.523208 32.716624 0.914755
2008-02-07 08:21:56 51°15.424 2°41.633 -999 3.524659 32.730687 0.949579
2008-02-07 08:22:00 51°15.432 2°41.615 -999 3.523622 32.719096 0.914755
2008-02-07 08:22:06 51°15.443 2°41.586 -999 3.523622 32.719096 0.914755
2008-02-07 08:22:11 51°15.452 2°41.562 -999 3.523312 32.715889 0.914755
2008-02-07 08:22:16 51°15.46 2°41.537 -999 3.524451 32.727647 0.949579
2008-02-07 08:22:20 51°15.467 2°41.518 -999 3.523622 32.719096 0.984403
2008-02-07 08:22:25 51°15.476 2°41.493 -999 3.524244 32.725509 0.984403
2008-02-07 08:22:31 51°15.487 2°41.464 -999 3.520618 32.689001 1.019227
2008-02-07 08:22:36 51°15.497 2°41.441 -999 3.520618 32.689001 1.019227
2008-02-07 08:22:40 51°15.504 2°41.421 -999 3.523519 32.718027 0.984403
2008-02-07 08:22:45 51°15.513 2°41.399 -999 3.523933 32.722302 1.019227
2008-02-07 08:22:50 51°15.523 2°41.376 -999 3.524037 32.723371 1.019227
2008-02-07 08:22:55 51°15.534 2°41.353 -999 3.52528 32.737101 0.984403
2008-02-07 08:23:00 51°15.545 2°41.331 -999 3.525902 32.742613 1.019227
2008-02-07 08:23:05 51°15.555 2°41.308 -999 3.525902 32.742613 1.019227
2008-02-07 08:23:10 51°15.566 2°41.287 -999 3.524969 32.732992 1.054051
2008-02-07 08:23:16 51°15.578 2°41.26 -999 3.523726 32.719263 1.019227
2008-02-07 08:23:20 51°15.587 2°41.241 -999 3.524244 32.723705 1.088875
2008-02-07 08:23:25 51°15.597 2°41.218 -999 3.526213 32.744015 1.088875
2008-02-07 08:23:31 51°15.609 2°41.19 -999 3.524969 32.730286 1.088875
2008-02-07 08:23:36 51°15.618 2°41.167 -999 3.524969 32.730286 1.088875
2008-02-07 08:23:40 51°15.626 2°41.149 -999 3.524659 32.727079 1.158523
2008-02-07 08:23:46 51°15.638 2°41.12 -999 3.524659 32.727079 1.123699
2008-02-07 08:23:50 51°15.646 2°41.102 -999 3.52642 32.744348 1.158523
2008-02-07 08:23:55 51°15.656 2°41.078 -999 3.52642 32.744348 1.088875
2008-02-07 08:24:00 51°15.666 2°41.055 -999 3.523519 32.713519 1.158523
2008-02-07 08:24:06 51°15.677 2°41.027 -999 3.523519 32.713519 1.158523
2008-02-07 08:24:10 51°15.685 2°41.008 -999 3.520203 32.680222 1.158523
2008-02-07 08:24:15 51°15.695 2°40.985 -999 3.527456 32.755038 1.158523
2008-02-07 08:24:20 51°15.705 2°40.961 -999 3.527249 32.751997 1.193347
2008-02-07 08:24:26 51°15.717 2°40.933 -999 3.52787 32.758411 1.158523
2008-02-07 08:24:30 51°15.725 2°40.915 -999 3.525591 32.733993 1.123699
2008-02-07 08:24:36 51°15.737 2°40.888 -999 3.525591 32.733993 1.123699
2008-02-07 08:24:40 51°15.745 2°40.869 -999 3.528181 32.759812 1.123699
2008-02-07 08:24:45 51°15.756 2°40.847 -999 3.528181 32.759812 1.228171
2008-02-07 08:24:51 51°15.768 2°40.819 -999 3.528492 32.762116 1.123699
2008-02-07 08:24:56 51°15.778 2°40.797 -999 3.527663 32.752663 1.123699
2008-02-07 08:25:00 51°15.787 2°40.778 -999 3.528492 32.761214 1.088875
2008-02-07 08:25:05 51°15.797 2°40.755 -999 3.528492 32.761214 1.088875
2008-02-07 08:25:10 51°15.807 2°40.731 -999 3.528596 32.76138 1.123699
2008-02-07 08:25:16 51°15.819 2°40.703 -999 3.52901 32.764752 1.123699
2008-02-07 08:25:20 51°15.827 2°40.684 -999 3.527456 32.747818 1.088875
2008-02-07 08:25:26 51°15.838 2°40.656 -999 3.525073 32.721435 1.158523
2008-02-07 08:25:30 51°15.846 2°40.637 -999 3.53046 32.776105 1.123699
2008-02-07 08:25:36 51°15.858 2°40.608 -999 3.53046 32.776105 1.123699
2008-02-07 08:25:40 51°15.866 2°40.589 -999 3.530771 32.779311 1.088875
2008-02-07 08:25:45 51°15.875 2°40.566 -999 3.530668 32.776436 1.088875
2008-02-07 08:25:50 51°15.885 2°40.542 -999 3.531393 32.783918 1.088875
2008-02-07 08:25:55 51°15.895 2°40.519 -999 3.532533 32.794771 1.019227
2008-02-07 08:26:00 51°15.905 2°40.495 -999 3.52901 32.758434 1.019227
2008-02-07 08:26:05 51°15.915 2°40.472 -999 3.52901 32.758434 1.019227
2008-02-07 08:26:10 51°15.925 2°40.448 -999 3.531704 32.787124 1.019227
2008-02-07 08:26:16 51°15.937 2°40.42 -999 3.529839 32.766984 0.984403
2008-02-07 08:26:20 51°15.945 2°40.401 -999 3.531393 32.782111 1.019227
2008-02-07 08:26:25 51°15.954 2°40.377 -999 3.532429 32.797316 1.019227
2008-02-07 08:26:30 51°15.964 2°40.353 -999 3.532326 32.798958 0.984403
2008-02-07 08:26:36 51°15.975 2°40.324 -999 3.532326 32.798958 0.984403
2008-02-07 08:26:40 51°15.983 2°40.304 -999 3.531704 32.793448 0.949579
2008-02-07 08:26:46 51°15.995 2°40.275 -999 3.531911 32.797393 0.949579
2008-02-07 08:26:51 51°16.004 2°40.251 -999 3.531186 32.790813 0.984403
2008-02-07 08:26:56 51°16.014 2°40.227 -999 3.533051 32.809153 0.914755
2008-02-07 08:27:00 51°16.021 2°40.208 -999 3.530253 32.778482 0.914755
2008-02-07 08:27:06 51°16.033 2°40.179 -999 3.530253 32.778482 0.914755
2008-02-07 08:27:11 51°16.043 2°40.155 -999 3.531911 32.792875 0.879931
2008-02-07 08:27:16 51°16.052 2°40.131 -999 3.533465 32.807102 0.914755
2008-02-07 08:27:20 51°16.059 2°40.112 -999 3.532947 32.801757 0.879931
2008-02-07 08:27:25 51°16.069 2°40.088 -999 3.535434 32.827413 0.879931
2008-02-07 08:27:30 51°16.079 2°40.064 -999 3.534709 32.820834 0.914755
2008-02-07 08:27:36 51°16.09 2°40.034 -999 3.534709 32.820834 0.914755
2008-02-07 08:27:40 51°16.098 2°40.015 -999 3.536366 32.837939 0.845107
2008-02-07 08:27:45 51°16.107 2°39.991 -999 3.53647 32.838103 0.810283
2008-02-07 08:27:50 51°16.117 2°39.967 -999 3.53419 32.813681 0.845107
2008-02-07 08:27:56 51°16.129 2°39.938 -999 3.535745 32.829715 0.845107
2008-02-07 08:28:00 51°16.137 2°39.919 -999 3.532533 32.795674 0.845107
2008-02-07 08:28:05 51°16.146 2°39.895 -999 3.532533 32.795674 0.845107
2008-02-07 08:28:10 51°16.156 2°39.871 -999 3.537402 32.845011 0.845107
2008-02-07 08:28:15 51°16.165 2°39.847 -999 3.535227 32.821658 0.845107
2008-02-07 08:28:20 51°16.175 2°39.823 -999 3.535537 32.82396 0.845107
2008-02-07 08:28:26 51°16.187 2°39.794 -999 3.538231 32.851753 0.879931
2008-02-07 08:28:30 51°16.195 2°39.776 -999 3.536055 32.827496 0.879931
2008-02-07 08:28:35 51°16.205 2°39.752 -999 3.536055 32.827496 0.879931
2008-02-07 08:28:40 51°16.216 2°39.729 -999 3.538853 32.855453 0.914755
2008-02-07 08:28:46 51°16.228 2°39.702 -999 3.538646 32.85241 0.879931
2008-02-07 08:28:50 51°16.237 2°39.683 -999 3.538646 32.845173 0.70581
2008-02-07 08:28:56 51°16.249 2°39.655 -999 3.539163 32.794528 0.670986
2008-02-07 08:29:00 51°16.257 2°39.637 -999 3.548072 32.749472 0.70581
2008-02-07 08:29:06 51°16.27 2°39.609 -999 3.548072 32.749472 0.70581
2008-02-07 08:29:11 51°16.28 2°39.585 -999 3.556877 32.703781 0.775459
2008-02-07 08:29:16 51°16.29 2°39.562 -999 3.561643 32.707032 0.70581
2008-02-07 08:29:20 51°16.299 2°39.544 -999 3.564441 32.712441 0.670986
2008-02-07 08:29:25 51°16.309 2°39.521 -999 3.56589 32.656197 0.462042
2008-02-07 08:29:31 51°16.322 2°39.492 -999 3.585676 32.397235 0.078977
2008-02-07 08:29:36 51°16.332 2°39.47 -999 3.585676 32.397235 0.078977
2008-02-07 08:29:40 51°16.34 2°39.451 -999 3.652398 31.992953 -0.234439
2008-02-07 08:29:46 51°16.353 2°39.424 -999 3.746903 31.45996 -0.513031
2008-02-07 08:29:50 51°16.362 2°39.406 -999 3.8321 31.159504 -0.721976
2008-02-07 08:29:56 51°16.375 2°39.378 -999 3.891395 31.034352 -0.826448
2008-02-07 08:30:00 51°16.383 2°39.36 -999 3.944377 31.157678 -0.687152
2008-02-07 08:30:05 51°16.394 2°39.337 -999 3.944377 31.157678 -0.687152
2008-02-07 08:30:10 51°16.404 2°39.314 -999 3.964083 31.475479 -0.199615
2008-02-07 08:30:16 51°16.417 2°39.286 -999 3.925733 32.32862 0.218274
2008-02-07 08:30:20 51°16.425 2°39.268 -999 3.853271 32.751027 0.566514
2008-02-07 08:30:25 51°16.436 2°39.245 -999 3.788594 33.215167 0.670986
2008-02-07 08:30:31 51°16.448 2°39.217 -999 3.725888 33.164098 0.740634
2008-02-07 08:30:36 51°16.459 2°39.194 -999 3.725888 33.164098 0.740634
2008-02-07 08:30:40 51°16.468 2°39.176 -999 3.682569 33.162176 0.810283
2008-02-07 08:30:45 51°16.478 2°39.153 -999 3.651792 33.110859 0.845107
2008-02-07 08:30:50 51°16.489 2°39.131 -999 3.62827 33.114089 0.810283
2008-02-07 08:30:55 51°16.5 2°39.108 -999 3.609307 33.017008 0.810283
2008-02-07 08:31:00 51°16.511 2°39.085 -999 3.598531 32.978819 0.845107
2008-02-07 08:31:06 51°16.523 2°39.058 -999 3.598531 32.978819 0.845107
2008-02-07 08:31:10 51°16.532 2°39.039 -999 3.585475 32.936952 0.879931
2008-02-07 08:31:15 51°16.542 2°39.016 -999 3.581228 32.959025 0.879931
2008-02-07 08:31:20 51°16.552 2°38.993 -999 3.573975 32.919823 0.879931
2008-02-07 08:31:25 51°16.562 2°38.97 -999 3.56983 32.90253 0.879931
2008-02-07 08:31:30 51°16.572 2°38.946 -999 3.566204 32.895925 0.879931
2008-02-07 08:31:36 51°16.584 2°38.918 -999 3.566204 32.895925 0.879931
2008-02-07 08:31:40 51°16.592 2°38.899 -999 3.563096 32.886531 0.879931
2008-02-07 08:31:45 51°16.602 2°38.875 -999 3.560609 32.88081 0.914755
2008-02-07 08:31:50 51°16.612 2°38.852 -999 3.559159 32.878521 0.879931
2008-02-07 08:31:56 51°16.624 2°38.824 -999 3.556465 32.858061 0.879931
2008-02-07 08:32:00 51°16.632 2°38.805 -999 3.555947 32.853641 0.879931
2008-02-07 08:32:06 51°16.644 2°38.777 -999 3.555947 32.853641 0.879931
2008-02-07 08:32:10 51°16.652 2°38.759 -999 3.555843 32.853477 0.845107
2008-02-07 08:32:16 51°16.665 2°38.731 -999 3.553667 32.835631 0.845107
2008-02-07 08:32:20 51°16.673 2°38.712 -999 3.556569 32.879839 0.845107
2008-02-07 08:32:26 51°16.685 2°38.684 -999 3.555429 32.878942 0.879931
2008-02-07 08:32:30 51°16.692 2°38.666 -999 3.551906 32.846339 0.845107
2008-02-07 08:32:35 51°16.702 2°38.642 -999 3.551906 32.846339 0.845107
2008-02-07 08:32:40 51°16.713 2°38.619 -999 3.552217 32.853137 0.845107
2008-02-07 08:32:46 51°16.724 2°38.591 -999 3.555533 32.883613 0.845107
2008-02-07 08:32:50 51°16.732 2°38.572 -999 3.55574 32.88394 0.845107
2008-02-07 08:32:56 51°16.745 2°38.544 -999 3.551388 32.837413 0.845107
2008-02-07 08:33:00 51°16.753 2°38.526 -999 3.554289 32.856418 0.879931
2008-02-07 08:33:05 51°16.763 2°38.503 -999 3.554289 32.856418 0.879931
2008-02-07 08:33:11 51°16.775 2°38.474 -999 3.556051 32.870912 0.949579
2008-02-07 08:33:16 51°16.785 2°38.451 -999 3.556362 32.878611 0.914755
2008-02-07 08:33:20 51°16.793 2°38.432 -999 3.556465 32.879676 0.845107
2008-02-07 08:33:25 51°16.803 2°38.408 -999 3.556362 32.885822 0.914755
2008-02-07 08:33:31 51°16.816 2°38.378 -999 3.554186 32.868867 0.879931
2008-02-07 08:33:36 51°16.827 2°38.353 -999 3.554186 32.868867 0.879931
2008-02-07 08:33:40 51°16.836 2°38.333 -999 3.556465 32.891396 0.810283
2008-02-07 08:33:45 51°16.847 2°38.308 -999 3.555636 32.884679 0.845107
2008-02-07 08:33:51 51°16.86 2°38.28 -999 3.552839 32.850519 0.845107
2008-02-07 08:33:56 51°16.871 2°38.256 -999 3.554704 32.874192 0.879931
2008-02-07 08:34:00 51°16.88 2°38.237 -999 3.55315 32.857316 0.845107
2008-02-07 08:34:05 51°16.892 2°38.213 -999 3.55315 32.857316 0.845107
2008-02-07 08:34:10 51°16.902 2°38.19 -999 3.553357 32.86305 0.845107
2008-02-07 08:34:16 51°16.916 2°38.162 -999 3.553046 32.866164 0.845107
2008-02-07 08:34:20 51°16.924 2°38.143 -999 3.553357 32.872065 0.845107
2008-02-07 08:34:25 51°16.935 2°38.119 -999 3.552632 32.869115 0.879931
2008-02-07 08:34:30 51°16.946 2°38.095 -999 3.553254 32.877312 0.845107
2008-02-07 08:34:36 51°16.959 2°38.067 -999 3.553254 32.877312 0.845107
2008-02-07 08:34:40 51°16.967 2°38.048 -999 3.550041 32.845184 0.845107
2008-02-07 08:34:46 51°16.98 2°38.02 -999 3.55574 32.904692 0.879931
2008-02-07 08:34:50 51°16.988 2°38 -999 3.55056 32.852314 0.845107
2008-02-07 08:34:55 51°16.999 2°37.977 -999 3.554601 32.890262 0.845107
2008-02-07 08:35:00 51°17.009 2°37.953 -999 3.553668 32.881574 0.845107
2008-02-07 08:35:06 51°17.021 2°37.924 -999 3.553668 32.881574 0.845107
2008-02-07 08:35:10 51°17.029 2°37.905 -999 3.555637 32.905432 0.845107
2008-02-07 08:35:16 51°17.042 2°37.876 -999 3.549938 32.849526 0.845107
2008-02-07 08:35:20 51°17.05 2°37.857 -999 3.554497 32.890099 0.845107
2008-02-07 08:35:26 51°17.062 2°37.828 -999 3.551078 32.84953 0.810283
2008-02-07 08:35:31 51°17.073 2°37.804 -999 3.553046 32.874279 0.845107
2008-02-07 08:35:36 51°17.083 2°37.781 -999 3.553046 32.874279 0.845107
2008-02-07 08:35:40 51°17.092 2°37.762 -999 3.555222 32.899363 0.914755
2008-02-07 08:35:45 51°17.102 2°37.738 -999 3.553357 32.880182 0.914755
2008-02-07 08:35:51 51°17.114 2°37.709 -999 3.554393 32.889936 0.879931
2008-02-07 08:35:56 51°17.124 2°37.685 -999 3.552839 32.87305 0.984403
2008-02-07 08:36:00 51°17.133 2°37.666 -999 3.555326 32.900429 1.019227
2008-02-07 08:36:05 51°17.143 2°37.642 -999 3.555326 32.900429 1.019227
2008-02-07 08:36:11 51°17.156 2°37.614 -999 3.552943 32.877724 1.019227
2008-02-07 08:36:16 51°17.166 2°37.59 -999 3.553875 32.888217 1.123699
2008-02-07 08:36:20 51°17.174 2°37.57 -999 3.547451 32.824855 1.088875
2008-02-07 08:36:25 51°17.184 2°37.546 -999 3.553461 32.886661 1.123699
2008-02-07 08:36:30 51°17.194 2°37.522 -999 3.548384 32.833543 1.123699
2008-02-07 08:36:36 51°17.206 2°37.493 -999 3.548384 32.833543 1.123699
2008-02-07 08:36:40 51°17.215 2°37.474 -999 3.547555 32.824119 1.123699
2008-02-07 08:36:45 51°17.225 2°37.45 -999 3.551078 32.860346 1.123699
2008-02-07 08:36:50 51°17.235 2°37.426 -999 3.549834 32.848461 1.088875
2008-02-07 08:36:56 51°17.247 2°37.398 -999 3.551492 32.864609 1.088875
2008-02-07 08:37:00 51°17.256 2°37.379 -999 3.550352 32.853789 1.088875
2008-02-07 08:37:06 51°17.268 2°37.351 -999 3.550352 32.853789 1.088875
2008-02-07 08:37:10 51°17.277 2°37.332 -999 3.547348 32.821988 1.088875
2008-02-07 08:37:15 51°17.287 2°37.308 -999 3.546622 32.815431 1.088875
2008-02-07 08:37:20 51°17.297 2°37.285 -999 3.549938 32.848625 1.054051
2008-02-07 08:37:26 51°17.31 2°37.256 -999 3.551699 32.864936 1.088875
2008-02-07 08:37:30 51°17.318 2°37.238 -999 3.550456 32.849446 1.054051
2008-02-07 08:37:35 51°17.328 2°37.214 -999 3.550456 32.849446 1.054051
2008-02-07 08:37:40 51°17.338 2°37.19 -999 3.549627 32.840923 1.054051
2008-02-07 08:37:46 51°17.351 2°37.161 -999 3.552114 32.865592 1.054051
2008-02-07 08:37:50 51°17.358 2°37.142 -999 3.548902 32.82626 1.019227
2008-02-07 08:37:56 51°17.37 2°37.113 -999 3.550041 32.834374 1.019227
2008-02-07 08:38:00 51°17.378 2°37.094 -999 3.546622 32.795633 0.949579
2008-02-07 08:38:06 51°17.391 2°37.065 -999 3.546622 32.795633 0.949579
2008-02-07 08:38:11 51°17.4 2°37.041 -999 3.549212 32.815054 1.054051
2008-02-07 08:38:16 51°17.41 2°37.017 -999 3.553875 32.856662 0.984403
2008-02-07 08:38:20 51°17.418 2°36.997 -999 3.555429 32.866326 1.019227
2008-02-07 08:38:26 51°17.43 2°36.969 -999 3.552735 32.835051 0.984403
2008-02-07 08:38:31 51°17.44 2°36.944 -999 3.547865 32.779645 0.949579
2008-02-07 08:38:36 51°17.45 2°36.92 -999 3.547865 32.779645 0.949579
2008-02-07 08:38:40 51°17.458 2°36.901 -999 3.549937 32.794634 0.914755
2008-02-07 08:38:45 51°17.468 2°36.877 -999 3.553875 32.830564 0.914755
2008-02-07 08:38:50 51°17.479 2°36.854 -999 3.555843 32.84538 0.914755
2008-02-07 08:38:56 51°17.491 2°36.825 -999 3.557708 32.857329 0.914755
2008-02-07 08:39:00 51°17.499 2°36.806 -999 3.55947 32.869112 0.914755
2008-02-07 08:39:05 51°17.509 2°36.782 -999 3.55947 32.869112 0.914755
2008-02-07 08:39:10 51°17.519 2°36.758 -999 3.559988 32.868131 0.879931
2008-02-07 08:39:16 51°17.531 2°36.729 -999 3.559159 32.852432 0.879931
2008-02-07 08:39:20 51°17.539 2°36.71 -999 3.560402 32.857097 0.914755
2008-02-07 08:39:25 51°17.55 2°36.686 -999 3.561852 32.862089 0.845107
2008-02-07 08:39:31 51°17.562 2°36.658 -999 3.563925 32.876148 0.845107
2008-02-07 08:39:36 51°17.572 2°36.634 -999 3.563925 32.876148 0.845107
2008-02-07 08:39:40 51°17.58 2°36.616 -999 3.559469 32.822393 0.845107
2008-02-07 08:39:46 51°17.592 2°36.587 -999 3.565375 32.874844 0.879931
2008-02-07 08:39:50 51°17.601 2°36.568 -999 3.565064 32.862678 0.810283
2008-02-07 08:39:55 51°17.611 2°36.545 -999 3.566825 32.871746 0.845107
2008-02-07 08:40:00 51°17.621 2°36.521 -999 3.569209 32.888077 0.879931
2008-02-07 08:40:06 51°17.634 2°36.493 -999 3.569209 32.888077 0.879931
2008-02-07 08:40:10 51°17.641 2°36.474 -999 3.562577 32.812101 0.810283
2008-02-07 08:40:16 51°17.654 2°36.446 -999 3.566825 32.847525 0.810283
2008-02-07 08:40:20 51°17.661 2°36.426 -999 3.566618 32.83913 0.879931
2008-02-07 08:40:26 51°17.674 2°36.398 -999 3.569105 32.859203 0.845107
2008-02-07 08:40:31 51°17.684 2°36.375 -999 3.573249 32.89534 0.879931
2008-02-07 08:40:36 51°17.694 2°36.351 -999 3.573249 32.89534 0.879931
2008-02-07 08:40:40 51°17.702 2°36.332 -999 3.572109 32.878296 0.845107
2008-02-07 08:40:45 51°17.713 2°36.309 -999 3.568068 32.831582 0.810283
2008-02-07 08:40:51 51°17.725 2°36.281 -999 3.572835 32.874959 0.845107
2008-02-07 08:40:56 51°17.735 2°36.257 -999 3.575839 32.901211 0.845107
2008-02-07 08:41:00 51°17.743 2°36.238 -999 3.57014 32.839347 0.879931
2008-02-07 08:41:06 51°17.755 2°36.21 -999 3.57014 32.839347 0.879931
2008-02-07 08:41:10 51°17.764 2°36.192 -999 3.57501 32.885561 0.914755
2008-02-07 08:41:16 51°17.776 2°36.163 -999 3.578533 32.917104 0.845107
2008-02-07 08:41:20 51°17.784 2°36.144 -999 3.57615 32.88915 0.810283
2008-02-07 08:41:25 51°17.794 2°36.121 -999 3.578948 32.915961 0.845107
2008-02-07 08:41:30 51°17.805 2°36.098 -999 3.579984 32.922968 0.879931
2008-02-07 08:41:36 51°17.817 2°36.07 -999 3.579984 32.922968 0.879931
2008-02-07 08:41:40 51°17.826 2°36.051 -999 3.57843 32.904389 0.845107
2008-02-07 08:41:45 51°17.836 2°36.027 -999 3.579259 32.910173 0.845107
2008-02-07 08:41:51 51°17.849 2°35.999 -999 3.579259 32.908381 0.810283
2008-02-07 08:41:56 51°17.859 2°35.976 -999 3.578637 32.898442 0.879931
2008-02-07 08:42:00 51°17.867 2°35.957 -999 3.582056 32.932494 0.845107
2008-02-07 08:42:05 51°17.878 2°35.934 -999 3.582056 32.932494 0.845107
2008-02-07 08:42:11 51°17.889 2°35.905 -999 3.578222 32.89152 0.879931
2008-02-07 08:42:16 51°17.9 2°35.882 -999 3.574181 32.849334 0.879931
2008-02-07 08:42:20 51°17.908 2°35.864 -999 3.579984 32.906833 0.879931
2008-02-07 08:42:26 51°17.92 2°35.839 -999 3.577704 32.881749 0.984403
2008-02-07 08:42:30 51°17.928 2°35.823 -999 3.580295 32.908217 0.914755
2008-02-07 08:42:36 51°17.942 2°35.802 -999 3.580295 32.908217 0.914755
2008-02-07 08:42:40 51°17.951 2°35.789 -999 3.581227 32.915058 0.845107
2008-02-07 08:42:46 51°17.965 2°35.772 -999 3.582885 32.931102 0.879931
2008-02-07 08:42:51 51°17.978 2°35.759 -999 3.582471 32.927763 0.879931
2008-02-07 08:42:56 51°17.99 2°35.748 -999 3.578844 32.888022 0.949579
2008-02-07 08:43:00 51°18 2°35.739 -999 3.582263 32.916685 0.949579
2008-02-07 08:43:05 51°18.012 2°35.729 -999 3.582263 32.916685 0.949579
2008-02-07 08:43:11 51°18.027 2°35.718 -999 3.58247 32.913427 0.879931
2008-02-07 08:43:16 51°18.04 2°35.709 -999 3.584336 32.935167 0.949579
2008-02-07 08:43:20 51°18.05 2°35.703 -999 3.583507 32.930284 0.914755
2008-02-07 08:43:26 51°18.066 2°35.692 -999 3.583921 32.934518 0.879931
2008-02-07 08:43:30 51°18.076 2°35.686 -999 3.57874 32.883383 0.845107
2008-02-07 08:43:36 51°18.091 2°35.676 -999 3.57874 32.883383 0.845107
2008-02-07 08:43:40 51°18.101 2°35.669 -999 3.579362 32.889734 0.914755
2008-02-07 08:43:46 51°18.116 2°35.66 -999 3.581124 32.908624 0.879931
2008-02-07 08:43:50 51°18.126 2°35.654 -999 3.581124 32.910416 0.914755
2008-02-07 08:43:55 51°18.139 2°35.648 -999 3.581953 32.920677 0.879931
2008-02-07 08:44:00 51°18.152 2°35.644 -999 3.582471 32.925971 0.879931
2008-02-07 08:44:06 51°18.168 2°35.64 -999 3.582471 32.925971 0.879931
2008-02-07 08:44:10 51°18.178 2°35.638 -999 3.581434 32.91628 0.949579
2008-02-07 08:44:16 51°18.194 2°35.636 -999 3.578533 32.886637 0.914755
2008-02-07 08:44:20 51°18.204 2°35.637 -999 3.582471 32.92149 0.845107
2008-02-07 08:44:25 51°18.217 2°35.639 -999 3.578637 32.87964 0.879931
2008-02-07 08:44:31 51°18.232 2°35.642 -999 3.582367 32.915952 0.845107
2008-02-07 08:44:36 51°18.244 2°35.647 -999 3.582367 32.915952 0.845107
2008-02-07 08:44:40 51°18.253 2°35.651 -999 3.579984 32.888924 0.879931
2008-02-07 08:44:45 51°18.265 2°35.658 -999 3.580813 32.89739 0.845107
2008-02-07 08:44:51 51°18.278 2°35.668 -999 3.579258 32.879727 0.879931
2008-02-07 08:44:56 51°18.289 2°35.677 -999 3.581849 32.906182 0.845107
2008-02-07 08:45:00 51°18.297 2°35.686 -999 3.58102 32.898611 0.914755
2008-02-07 08:45:05 51°18.306 2°35.698 -999 3.58102 32.898611 0.914755
2008-02-07 08:45:11 51°18.318 2°35.713 -999 3.581642 32.906752 0.845107
2008-02-07 08:45:16 51°18.327 2°35.726 -999 3.582574 32.915381 0.879931
2008-02-07 08:45:20 51°18.334 2°35.736 -999 3.581434 32.90374 0.810283
2008-02-07 08:45:25 51°18.342 2°35.751 -999 3.580605 32.895273 0.740634
2008-02-07 08:45:31 51°18.352 2°35.767 -999 3.582574 32.912695 0.740634
2008-02-07 08:45:36 51°18.36 2°35.781 -999 3.582574 32.912695 0.740634
2008-02-07 08:45:40 51°18.368 2°35.791 -999 3.581745 32.906019 0.740634
2008-02-07 08:45:45 51°18.377 2°35.804 -999 3.581538 32.900322 0.740634
2008-02-07 08:45:50 51°18.387 2°35.815 -999 3.582056 32.902032 0.775459
2008-02-07 08:45:56 51°18.4 2°35.828 -999 3.582056 32.903822 0.775459
2008-02-07 08:46:00 51°18.408 2°35.836 -999 3.581227 32.898042 0.775459
2008-02-07 08:46:06 51°18.42 2°35.85 -999 3.581227 32.898042 0.775459
2008-02-07 08:46:10 51°18.428 2°35.86 -999 3.576564 32.85311 0.70581
2008-02-07 08:46:15 51°18.437 2°35.872 -999 3.578118 32.871665 0.740634
2008-02-07 08:46:20 51°18.446 2°35.886 -999 3.582678 32.918231 0.775459
2008-02-07 08:46:26 51°18.456 2°35.904 -999 3.582056 32.912776 0.775459
2008-02-07 08:46:30 51°18.462 2°35.916 -999 3.582367 32.915952 0.70581
2008-02-07 08:46:36 51°18.471 2°35.934 -999 3.582367 32.915952 0.70581
2008-02-07 08:46:40 51°18.477 2°35.947 -999 3.583299 32.923686 0.775459
2008-02-07 08:46:46 51°18.486 2°35.964 -999 3.580916 32.894868 0.740634
2008-02-07 08:46:51 51°18.495 2°35.978 -999 3.584957 32.929869 0.775459
2008-02-07 08:46:56 51°18.503 2°35.992 -999 3.581641 32.895115 0.70581
2008-02-07 08:47:00 51°18.51 2°36.003 -999 3.58102 32.888767 0.740634
2008-02-07 08:47:05 51°18.519 2°36.016 -999 3.58102 32.888767 0.740634
2008-02-07 08:47:10 51°18.527 2°36.03 -999 3.584543 32.92474 0.740634
2008-02-07 08:47:15 51°18.536 2°36.044 -999 3.582781 32.907648 0.775459
2008-02-07 08:47:20 51°18.544 2°36.059 -999 3.582678 32.9048 0.775459
2008-02-07 08:47:25 51°18.551 2°36.072 -999 3.581849 32.892757 0.810283
2008-02-07 08:47:31 51°18.559 2°36.088 -999 3.581745 32.88991 0.775459
2008-02-07 08:47:36 51°18.566 2°36.1 -999 3.581745 32.88991 0.775459
2008-02-07 08:47:40 51°18.571 2°36.11 -999 3.585579 32.929051 0.810283
2008-02-07 08:47:45 51°18.578 2°36.12 -999 3.586408 32.935724 0.775459
2008-02-07 08:47:51 51°18.584 2°36.132 -999 3.583506 32.906103 0.810283
2008-02-07 08:47:56 51°18.591 2°36.14 -999 3.584854 32.918065 0.810283
2008-02-07 08:48:00 51°18.595 2°36.147 -999 3.584439 32.912938 0.775459
2008-02-07 08:48:04 51°18.599 2°36.153 -999 3.584439 32.912938 0.775459
2008-02-07 08:48:10 51°18.605 2°36.162 -999 3.584232 32.909033 0.810283
2008-02-07 08:48:16 51°18.611 2°36.169 -999 3.585164 32.918553 0.810283
2008-02-07 08:48:20 51°18.615 2°36.174 -999 3.586822 32.935477 0.70581
2008-02-07 08:48:25 51°18.62 2°36.179 -999 3.58734 32.940766 0.670986
2008-02-07 08:48:30 51°18.625 2°36.185 -999 3.587962 32.94801 0.670986
2008-02-07 08:48:35 51°18.629 2°36.19 -999 3.587962 32.94801 0.670986
2008-02-07 08:48:40 51°18.634 2°36.194 -999 3.582677 32.894957 0.670986
2008-02-07 08:48:45 51°18.638 2°36.199 -999 3.583506 32.902524 0.601338
2008-02-07 08:48:50 51°18.642 2°36.203 -999 3.582988 32.89813 0.601338
2008-02-07 08:48:56 51°18.647 2°36.209 -999 3.582677 32.894957 0.636162
2008-02-07 08:49:00 51°18.649 2°36.212 -999 3.589309 32.962659 0.566514
2008-02-07 08:49:05 51°18.653 2°36.217 -999 3.589309 32.962659 0.566514
2008-02-07 08:49:11 51°18.656 2°36.222 -999 3.586926 32.937431 0.601338
2008-02-07 08:49:16 51°18.659 2°36.226 -999 3.583403 32.902361 0.601338
2008-02-07 08:49:20 51°18.661 2°36.23 -999 3.582263 32.889832 0.601338
2008-02-07 08:49:26 51°18.663 2°36.235 -999 3.588169 32.950125 0.670986
2008-02-07 08:49:31 51°18.665 2°36.24 -999 3.586719 32.934419 0.601338
2008-02-07 08:49:36 51°18.666 2°36.244 -999 3.586719 32.934419 0.601338
2008-02-07 08:49:40 51°18.667 2°36.247 -999 3.588169 32.949229 0.566514
2008-02-07 08:49:46 51°18.668 2°36.252 -999 3.587133 32.939546 0.566514
2008-02-07 08:49:51 51°18.67 2°36.255 -999 3.588688 32.956311 0.566514
2008-02-07 08:49:56 51°18.67 2°36.259 -999 3.588791 32.957369 0.566514
2008-02-07 08:50:00 51°18.671 2°36.261 -999 3.58848 32.954195 0.566514
2008-02-07 08:50:05 51°18.672 2°36.264 -999 3.58848 32.954195 0.566514
2008-02-07 08:50:11 51°18.673 2°36.267 -999 3.58962 32.965833 0.53169
2008-02-07 08:50:16 51°18.674 2°36.27 -999 3.588066 32.949067 0.53169
2008-02-07 08:50:20 51°18.675 2°36.272 -999 3.585061 32.9166 0.601338
2008-02-07 08:50:25 51°18.675 2°36.274 -999 3.587755 32.943206 0.601338
2008-02-07 08:50:31 51°18.676 2°36.276 -999 3.587858 32.943368 0.53169
2008-02-07 08:50:36 51°18.676 2°36.278 -999 3.587858 32.943368 0.53169
2008-02-07 08:50:40 51°18.676 2°36.279 -999 3.588998 32.954108 0.566514
2008-02-07 08:50:45 51°18.676 2°36.281 -999 3.589827 32.962571 0.53169
2008-02-07 08:50:51 51°18.677 2°36.283 -999 3.590553 32.969976 0.496866
2008-02-07 08:50:56 51°18.677 2°36.283 -999 3.587444 32.938242 0.462042
2008-02-07 08:51:00 51°18.677 2°36.284 -999 3.588584 32.948981 0.462042
2008-02-07 08:51:04 51°18.676 2°36.284 -999 3.588584 32.948981 0.462042
2008-02-07 08:51:10 51°18.676 2°36.283 -999 3.588895 32.951259 0.462042
2008-02-07 08:51:16 51°18.676 2°36.281 -999 3.589413 32.956547 0.462042
2008-02-07 08:51:20 51°18.675 2°36.281 -999 3.590863 32.97046 0.496866
2008-02-07 08:51:25 51°18.675 2°36.279 -999 3.589206 32.953536 0.496866
2008-02-07 08:51:30 51°18.675 2°36.279 -999 3.587962 32.940843 0.462042
2008-02-07 08:51:35 51°18.675 2°36.278 -999 3.587962 32.940843 0.462042
2008-02-07 08:51:40 51°18.674 2°36.279 -999 3.587133 32.933278 0.462042
2008-02-07 08:51:45 51°18.675 2°36.28 -999 3.591485 32.977704 0.496866
2008-02-07 08:51:51 51°18.675 2°36.283 -999 3.590656 32.969241 0.427218
2008-02-07 08:51:56 51°18.676 2°36.286 -999 3.589827 32.961675 0.53169
2008-02-07 08:52:00 51°18.676 2°36.289 -999 3.587962 32.944426 0.566514
2008-02-07 08:52:05 51°18.678 2°36.292 -999 3.587962 32.944426 0.566514
2008-02-07 08:52:11 51°18.681 2°36.296 -999 3.590035 32.967376 0.601338
2008-02-07 08:52:16 51°18.683 2°36.299 -999 3.591382 32.98113 0.636162
2008-02-07 08:52:20 51°18.685 2°36.3 -999 3.588895 32.956635 0.566514
2008-02-07 08:52:26 51°18.688 2°36.302 -999 3.590035 32.969169 0.636162
2008-02-07 08:52:30 51°18.689 2°36.303 -999 3.58734 32.942558 0.53169
2008-02-07 08:52:36 51°18.692 2°36.304 -999 3.58734 32.942558 0.53169
2008-02-07 08:52:40 51°18.693 2°36.305 -999 3.589931 32.969007 0.566514
2008-02-07 08:52:46 51°18.694 2°36.305 -999 3.586304 32.931979 0.601338
2008-02-07 08:52:50 51°18.694 2°36.304 -999 3.587755 32.947686 0.636162
2008-02-07 08:52:56 51°18.695 2°36.303 -999 3.58848 32.955091 0.601338
2008-02-07 08:53:00 51°18.696 2°36.303 -999 3.58962 32.964937 0.601338
2008-02-07 08:53:05 51°18.696 2°36.302 -999 3.58962 32.964937 0.601338
2008-02-07 08:53:11 51°18.697 2°36.3 -999 3.590449 32.975194 0.566514
2008-02-07 08:53:16 51°18.697 2°36.3 -999 3.588273 32.953872 0.566514
2008-02-07 08:53:20 51°18.698 2°36.299 -999 3.59076 32.981059 0.566514
2008-02-07 08:53:25 51°18.698 2°36.298 -999 3.58734 32.947038 0.462042
2008-02-07 08:53:31 51°18.699 2°36.297 -999 3.586304 32.936457 0.462042
2008-02-07 08:53:36 51°18.7 2°36.296 -999 3.586304 32.936457 0.462042
2008-02-07 08:53:40 51°18.7 2°36.295 -999 3.589931 32.973491 0.496866